GEFSMA_prec_meanprec_264.txt.gz
QPF
0.02 0.01 0.00 0.00 0.00 0.00 0.00 0.00 0.00 0.00 0.00 0.00 0.01 0.01 0.01 0.01 0.01 0.00 0.00 0.00 0.00 0.00 0.00 0.00 0.00 0.01 0.01 0.01 0.01 0.01 0.01 0.01 0.01 0.01 0.01 0.01 0.02 0.01 0.02 0.02 0.01 0.01 0.02
0.03 0.01 0.00 0.00 0.00 0.00 0.00 0.00 0.00 0.00 0.00 0.00 0.01 0.01 0.02 0.02 0.02 0.01 0.01 0.00 0.00 0.00 0.00 0.01 0.01 0.01 0.01 0.01 0.01 0.01 0.01 0.01 0.01 0.01 0.01 0.01 0.01 0.01 0.01 0.01 0.01 0.01 0.02
0.06 0.02 0.01 0.00 0.00 0.00 0.00 0.00 0.00 0.00 0.00 0.00 0.00 0.01 0.01 0.02 0.02 0.02 0.01 0.01 0.00 0.00 0.00 0.01 0.01 0.01 0.01 0.01 0.01 0.00 0.00 0.01 0.01 0.01 0.01 0.01 0.01 0.01 0.01 0.01 0.01 0.01 0.01
0.13 0.06 0.02 0.01 0.00 0.00 0.00 0.00 0.00 0.00 0.00 0.00 0.00 0.01 0.01 0.01 0.02 0.03 0.02 0.02 0.01 0.01 0.00 0.01 0.01 0.01 0.01 0.01 0.01 0.00 0.00 0.01 0.01 0.01 0.01 0.01 0.01 0.01 0.01 0.01 0.01 0.01 0.02
0.24 0.15 0.06 0.01 0.01 0.00 0.00 0.00 0.00 0.00 0.00 0.00 0.00 0.01 0.01 0.01 0.02 0.02 0.03 0.02 0.02 0.01 0.01 0.01 0.01 0.01 0.00 0.01 0.01 0.01 0.00 0.01 0.01 0.01 0.01 0.01 0.01 0.01 0.02 0.02 0.02 0.02 0.02
0.29 0.26 0.15 0.06 0.02 0.01 0.00 0.00 0.00 0.00 0.00 0.00 0.00 0.00 0.01 0.02 0.02 0.02 0.02 0.01 0.01 0.01 0.01 0.01 0.01 0.01 0.00 0.00 0.00 0.01 0.01 0.01 0.01 0.01 0.01 0.01 0.01 0.01 0.02 0.02 0.02 0.02 0.02
0.21 0.28 0.23 0.13 0.05 0.02 0.01 0.00 0.00 0.00 0.00 0.00 0.00 0.01 0.01 0.01 0.02 0.03 0.02 0.01 0.01 0.01 0.01 0.02 0.02 0.01 0.00 0.00 0.00 0.00 0.01 0.01 0.01 0.01 0.01 0.01 0.01 0.02 0.02 0.02 0.02 0.02 0.02
0.15 0.19 0.23 0.18 0.11 0.05 0.02 0.02 0.01 0.01 0.01 0.01 0.02 0.02 0.02 0.02 0.01 0.02 0.03 0.02 0.02 0.01 0.01 0.01 0.01 0.01 0.01 0.00 0.00 0.00 0.00 0.01 0.01 0.01 0.01 0.01 0.02 0.02 0.02 0.02 0.02 0.02 0.02
0.12 0.14 0.18 0.18 0.14 0.10 0.06 0.04 0.03 0.03 0.02 0.02 0.02 0.02 0.01 0.01 0.01 0.01 0.01 0.02 0.02 0.01 0.01 0.00 0.01 0.01 0.01 0.00 0.00 0.00 0.00 0.01 0.01 0.01 0.01 0.02 0.02 0.02 0.02 0.02 0.02 0.03 0.03
0.09 0.11 0.16 0.19 0.18 0.13 0.09 0.07 0.05 0.03 0.01 0.01 0.01 0.00 0.00 0.00 0.00 0.00 0.01 0.01 0.01 0.01 0.01 0.01 0.01 0.01 0.01 0.01 0.01 0.00 0.00 0.00 0.01 0.01 0.01 0.01 0.02 0.03 0.02 0.02 0.03 0.03 0.03
0.08 0.09 0.11 0.15 0.19 0.16 0.11 0.08 0.06 0.04 0.02 0.01 0.01 0.01 0.00 0.00 0.00 0.00 0.00 0.01 0.01 0.01 0.01 0.01 0.01 0.02 0.02 0.01 0.01 0.01 0.01 0.00 0.00 0.00 0.01 0.01 0.02 0.03 0.03 0.03 0.02 0.02 0.02
0.07 0.08 0.09 0.10 0.13 0.15 0.13 0.12 0.10 0.08 0.05 0.04 0.02 0.02 0.01 0.01 0.00 0.00 0.00 0.00 0.01 0.01 0.01 0.00 0.00 0.01 0.01 0.02 0.01 0.01 0.01 0.01 0.00 0.00 0.01 0.01 0.02 0.02 0.03 0.04 0.03 0.02 0.02
0.07 0.07 0.07 0.08 0.09 0.09 0.09 0.09 0.11 0.14 0.13 0.11 0.07 0.04 0.03 0.02 0.01 0.01 0.01 0.01 0.00 0.01 0.01 0.00 0.00 0.00 0.00 0.00 0.01 0.01 0.01 0.01 0.00 0.00 0.00 0.01 0.01 0.01 0.02 0.03 0.04 0.04 0.04
0.07 0.07 0.08 0.07 0.08 0.08 0.07 0.07 0.07 0.09 0.12 0.14 0.12 0.09 0.07 0.04 0.03 0.02 0.02 0.02 0.01 0.01 0.01 0.00 0.00 0.00 0.00 0.00 0.00 0.01 0.00 0.00 0.00 0.00 0.00 0.00 0.01 0.01 0.01 0.02 0.04 0.04 0.05
0.06 0.05 0.06 0.07 0.09 0.10 0.08 0.08 0.07 0.05 0.05 0.05 0.07 0.08 0.08 0.08 0.06 0.04 0.03 0.02 0.02 0.02 0.02 0.01 0.01 0.01 0.01 0.00 0.01 0.00 0.00 0.00 0.00 0.00 0.00 0.00 0.00 0.01 0.01 0.01 0.02 0.04 0.05
0.07 0.06 0.06 0.06 0.06 0.08 0.08 0.08 0.07 0.05 0.04 0.03 0.03 0.03 0.05 0.07 0.07 0.05 0.04 0.02 0.02 0.02 0.02 0.01 0.01 0.01 0.01 0.01 0.01 0.01 0.01 0.01 0.00 0.00 0.00 0.01 0.01 0.01 0.01 0.01 0.01 0.02 0.03
0.08 0.08 0.07 0.07 0.06 0.06 0.06 0.05 0.05 0.06 0.05 0.04 0.03 0.02 0.03 0.05 0.06 0.06 0.05 0.03 0.02 0.01 0.02 0.01 0.01 0.00 0.01 0.01 0.01 0.01 0.01 0.01 0.01 0.01 0.01 0.01 0.01 0.01 0.01 0.01 0.01 0.01 0.01
0.06 0.07 0.07 0.07 0.06 0.04 0.03 0.03 0.03 0.03 0.04 0.04 0.03 0.02 0.03 0.04 0.04 0.03 0.02 0.02 0.02 0.01 0.01 0.01 0.01 0.01 0.00 0.01 0.01 0.01 0.01 0.01 0.01 0.01 0.01 0.01 0.01 0.01 0.01 0.01 0.01 0.01 0.01
0.04 0.05 0.05 0.05 0.04 0.03 0.03 0.03 0.03 0.02 0.02 0.03 0.03 0.04 0.04 0.03 0.03 0.02 0.01 0.01 0.01 0.01 0.01 0.01 0.01 0.00 0.00 0.00 0.00 0.01 0.01 0.01 0.01 0.02 0.02 0.02 0.02 0.02 0.01 0.01 0.01 0.01 0.01
0.02 0.03 0.04 0.04 0.04 0.03 0.03 0.03 0.02 0.02 0.03 0.04 0.04 0.04 0.03 0.03 0.02 0.01 0.01 0.01 0.01 0.00 0.00 0.00 0.00 0.00 0.00 0.00 0.00 0.00 0.00 0.00 0.01 0.01 0.02 0.02 0.02 0.02 0.02 0.01 0.01 0.01 0.01
0.02 0.02 0.03 0.02 0.03 0.03 0.03 0.02 0.02 0.01 0.02 0.03 0.02 0.02 0.02 0.02 0.02 0.01 0.01 0.00 0.00 0.00 0.00 0.00 0.00 0.00 0.00 0.00 0.00 0.00 0.00 0.00 0.00 0.00 0.01 0.01 0.02 0.02 0.02 0.02 0.02 0.01 0.01
0.02 0.02 0.02 0.02 0.01 0.02 0.04 0.04 0.03 0.02 0.01 0.02 0.02 0.02 0.01 0.01 0.01 0.01 0.01 0.00 0.00 0.00 0.00 0.00 0.00 0.00 0.00 0.00 0.01 0.01 0.00 0.00 0.00 0.00 0.00 0.00 0.01 0.01 0.01 0.02 0.02 0.02 0.01
0.02 0.02 0.02 0.02 0.02 0.02 0.03 0.03 0.02 0.02 0.01 0.01 0.01 0.01 0.01 0.01 0.01 0.01 0.01 0.01 0.00 0.00 0.00 0.00 0.00 0.01 0.01 0.01 0.01 0.01 0.00 0.00 0.00 0.00 0.00 0.00 0.00 0.01 0.01 0.01 0.01 0.01 0.01
0.03 0.03 0.03 0.03 0.03 0.03 0.03 0.02 0.02 0.01 0.01 0.01 0.01 0.01 0.01 0.01 0.01 0.01 0.01 0.01 0.01 0.00 0.00 0.01 0.01 0.01 0.01 0.01 0.01 0.00 0.00 0.00 0.00 0.00 0.00 0.00 0.00 0.00 0.01 0.01 0.01 0.01 0.01
0.03 0.03 0.03 0.02 0.02 0.02 0.02 0.03 0.02 0.01 0.01 0.01 0.01 0.01 0.01 0.01 0.01 0.02 0.01 0.01 0.01 0.01 0.01 0.01 0.01 0.01 0.01 0.01 0.01 0.00 0.00 0.00 0.00 0.00 0.00 0.00 0.00 0.01 0.01 0.00 0.00 0.01 0.01
0.03 0.02 0.02 0.01 0.01 0.01 0.01 0.02 0.02 0.01 0.01 0.01 0.01 0.01 0.01 0.01 0.01 0.01 0.01 0.01 0.01 0.01 0.01 0.01 0.01 0.00 0.00 0.00 0.01 0.00 0.01 0.01 0.01 0.01 0.00 0.01 0.01 0.01 0.01 0.00 0.00 0.00 0.00

GEFSMA_prec_meanprec_270.txt.gz
QPF
0.07 0.06 0.07 0.09 0.07 0.04 0.02 0.01 0.00 0.00 0.00 0.00 0.00 0.00 0.00 0.00 0.00 0.01 0.01 0.00 0.00 0.01 0.01 0.01 0.01 0.02 0.02 0.03 0.03 0.03 0.03 0.02 0.02 0.02 0.02 0.01 0.01 0.01 0.02 0.02 0.02 0.02 0.02
0.07 0.08 0.07 0.09 0.09 0.05 0.02 0.01 0.00 0.00 0.00 0.00 0.00 0.00 0.00 0.00 0.00 0.00 0.01 0.01 0.01 0.01 0.01 0.01 0.01 0.01 0.02 0.02 0.02 0.02 0.03 0.04 0.03 0.02 0.02 0.02 0.02 0.02 0.02 0.02 0.02 0.02 0.02
0.09 0.09 0.09 0.07 0.10 0.08 0.03 0.01 0.01 0.00 0.00 0.00 0.00 0.00 0.00 0.00 0.00 0.00 0.00 0.01 0.01 0.01 0.01 0.01 0.01 0.01 0.01 0.02 0.01 0.01 0.02 0.03 0.03 0.03 0.02 0.02 0.01 0.01 0.01 0.02 0.02 0.02 0.02
0.12 0.10 0.10 0.09 0.09 0.11 0.07 0.02 0.01 0.00 0.00 0.00 0.00 0.00 0.00 0.00 0.00 0.00 0.00 0.01 0.01 0.01 0.01 0.00 0.00 0.01 0.01 0.01 0.01 0.02 0.01 0.02 0.03 0.02 0.02 0.01 0.01 0.01 0.02 0.02 0.02 0.02 0.02
0.11 0.11 0.12 0.12 0.11 0.12 0.10 0.05 0.02 0.01 0.00 0.00 0.00 0.00 0.00 0.00 0.00 0.00 0.00 0.01 0.01 0.01 0.01 0.01 0.01 0.01 0.01 0.01 0.01 0.02 0.01 0.01 0.02 0.02 0.01 0.01 0.01 0.01 0.02 0.02 0.02 0.02 0.02
0.09 0.10 0.11 0.13 0.12 0.12 0.12 0.06 0.03 0.02 0.01 0.01 0.01 0.01 0.01 0.01 0.01 0.01 0.01 0.01 0.01 0.01 0.01 0.01 0.01 0.01 0.02 0.01 0.01 0.02 0.02 0.01 0.02 0.02 0.02 0.01 0.01 0.02 0.02 0.02 0.02 0.02 0.02
0.10 0.11 0.12 0.14 0.12 0.10 0.10 0.06 0.03 0.02 0.01 0.01 0.01 0.01 0.01 0.01 0.01 0.01 0.01 0.01 0.01 0.01 0.01 0.01 0.01 0.01 0.02 0.02 0.01 0.02 0.02 0.02 0.01 0.01 0.01 0.01 0.01 0.02 0.02 0.02 0.03 0.03 0.03
0.09 0.12 0.15 0.17 0.15 0.11 0.09 0.07 0.04 0.03 0.02 0.01 0.02 0.02 0.02 0.03 0.02 0.02 0.01 0.01 0.01 0.01 0.01 0.01 0.01 0.01 0.02 0.02 0.01 0.01 0.01 0.01 0.01 0.01 0.01 0.01 0.01 0.02 0.02 0.03 0.03 0.03 0.03
0.07 0.08 0.11 0.15 0.20 0.18 0.13 0.08 0.05 0.03 0.02 0.02 0.02 0.02 0.02 0.02 0.02 0.01 0.01 0.01 0.01 0.01 0.01 0.01 0.01 0.01 0.01 0.02 0.02 0.01 0.01 0.01 0.01 0.01 0.01 0.01 0.01 0.02 0.02 0.03 0.03 0.03 0.03
0.07 0.07 0.08 0.10 0.13 0.18 0.17 0.11 0.05 0.03 0.03 0.03 0.02 0.01 0.02 0.02 0.02 0.01 0.00 0.01 0.01 0.02 0.02 0.02 0.01 0.01 0.01 0.02 0.02 0.01 0.00 0.00 0.01 0.01 0.01 0.01 0.01 0.02 0.02 0.03 0.03 0.04 0.04
0.07 0.07 0.07 0.07 0.09 0.13 0.16 0.14 0.09 0.06 0.05 0.03 0.02 0.02 0.02 0.02 0.02 0.01 0.00 0.00 0.01 0.03 0.04 0.03 0.02 0.02 0.01 0.01 0.02 0.02 0.01 0.01 0.00 0.01 0.01 0.01 0.01 0.02 0.02 0.02 0.03 0.03 0.04
0.08 0.07 0.06 0.05 0.06 0.09 0.12 0.14 0.11 0.08 0.07 0.05 0.03 0.02 0.02 0.03 0.03 0.03 0.01 0.01 0.01 0.02 0.03 0.03 0.03 0.02 0.02 0.01 0.02 0.02 0.02 0.01 0.01 0.00 0.01 0.01 0.01 0.01 0.02 0.02 0.02 0.03 0.03
0.09 0.07 0.05 0.05 0.05 0.06 0.09 0.12 0.13 0.11 0.10 0.06 0.04 0.02 0.02 0.02 0.03 0.03 0.02 0.02 0.01 0.02 0.02 0.02 0.02 0.02 0.02 0.02 0.02 0.02 0.02 0.02 0.02 0.01 0.01 0.01 0.01 0.01 0.01 0.01 0.02 0.02 0.03
0.10 0.07 0.05 0.05 0.05 0.05 0.05 0.07 0.10 0.12 0.11 0.08 0.05 0.04 0.03 0.02 0.02 0.03 0.03 0.03 0.02 0.02 0.02 0.02 0.02 0.02 0.02 0.02 0.02 0.02 0.02 0.01 0.01 0.01 0.01 0.01 0.01 0.01 0.01 0.01 0.01 0.02 0.03
0.11 0.10 0.06 0.05 0.04 0.04 0.05 0.05 0.06 0.08 0.08 0.08 0.08 0.05 0.03 0.03 0.03 0.03 0.03 0.03 0.03 0.03 0.02 0.02 0.02 0.01 0.01 0.01 0.02 0.02 0.02 0.02 0.01 0.01 0.01 0.01 0.01 0.01 0.01 0.01 0.01 0.01 0.02
0.14 0.15 0.12 0.07 0.05 0.05 0.05 0.05 0.05 0.05 0.06 0.05 0.05 0.07 0.05 0.03 0.03 0.03 0.04 0.03 0.03 0.03 0.03 0.02 0.02 0.01 0.02 0.02 0.02 0.01 0.01 0.01 0.01 0.01 0.01 0.01 0.01 0.01 0.01 0.01 0.01 0.01 0.01
0.16 0.17 0.16 0.13 0.10 0.08 0.06 0.05 0.05 0.04 0.04 0.03 0.02 0.03 0.04 0.04 0.03 0.04 0.04 0.04 0.04 0.03 0.04 0.03 0.02 0.02 0.02 0.02 0.02 0.01 0.01 0.00 0.00 0.00 0.01 0.01 0.01 0.01 0.01 0.01 0.01 0.01 0.01
0.17 0.17 0.16 0.15 0.13 0.12 0.09 0.06 0.04 0.03 0.03 0.02 0.02 0.02 0.02 0.04 0.04 0.04 0.05 0.05 0.04 0.04 0.03 0.03 0.03 0.03 0.03 0.02 0.02 0.01 0.01 0.01 0.00 0.00 0.00 0.00 0.01 0.01 0.01 0.01 0.01 0.01 0.01
0.11 0.12 0.12 0.12 0.10 0.09 0.09 0.07 0.05 0.03 0.02 0.02 0.02 0.02 0.02 0.03 0.05 0.05 0.04 0.04 0.04 0.04 0.04 0.03 0.02 0.03 0.04 0.03 0.02 0.01 0.01 0.01 0.01 0.00 0.00 0.00 0.00 0.01 0.01 0.01 0.01 0.01 0.01
0.08 0.08 0.08 0.07 0.05 0.04 0.05 0.06 0.06 0.05 0.03 0.03 0.02 0.02 0.03 0.03 0.03 0.03 0.03 0.02 0.03 0.03 0.04 0.03 0.02 0.02 0.03 0.04 0.03 0.02 0.01 0.01 0.01 0.01 0.00 0.00 0.00 0.01 0.02 0.02 0.02 0.02 0.01
0.05 0.05 0.05 0.04 0.04 0.04 0.04 0.05 0.05 0.05 0.05 0.05 0.04 0.03 0.02 0.02 0.01 0.01 0.02 0.02 0.03 0.03 0.03 0.02 0.02 0.02 0.02 0.03 0.03 0.02 0.02 0.01 0.01 0.01 0.01 0.00 0.00 0.01 0.01 0.02 0.02 0.02 0.02
0.05 0.04 0.04 0.04 0.04 0.04 0.05 0.04 0.04 0.04 0.03 0.04 0.04 0.03 0.02 0.01 0.01 0.01 0.01 0.02 0.02 0.02 0.02 0.02 0.02 0.02 0.02 0.02 0.02 0.02 0.02 0.02 0.01 0.01 0.01 0.01 0.01 0.01 0.01 0.01 0.02 0.02 0.03
0.05 0.05 0.05 0.04 0.04 0.03 0.04 0.04 0.04 0.04 0.03 0.03 0.02 0.02 0.02 0.02 0.01 0.01 0.01 0.01 0.01 0.01 0.01 0.01 0.01 0.01 0.02 0.02 0.02 0.02 0.02 0.01 0.01 0.01 0.01 0.01 0.01 0.01 0.01 0.01 0.01 0.02 0.02
0.05 0.05 0.04 0.04 0.03 0.03 0.04 0.03 0.03 0.03 0.03 0.02 0.01 0.01 0.01 0.01 0.01 0.01 0.02 0.02 0.01 0.01 0.01 0.01 0.01 0.01 0.01 0.02 0.02 0.02 0.01 0.01 0.01 0.01 0.01 0.01 0.01 0.01 0.01 0.01 0.01 0.01 0.02
0.05 0.05 0.05 0.04 0.03 0.04 0.04 0.03 0.02 0.02 0.02 0.02 0.01 0.01 0.00 0.00 0.01 0.01 0.01 0.01 0.01 0.01 0.02 0.02 0.02 0.02 0.01 0.01 0.01 0.01 0.01 0.01 0.01 0.00 0.00 0.01 0.01 0.01 0.00 0.00 0.01 0.01 0.01
0.05 0.05 0.05 0.04 0.03 0.03 0.03 0.02 0.01 0.01 0.02 0.01 0.01 0.00 0.01 0.01 0.01 0.01 0.01 0.01 0.01 0.01 0.01 0.01 0.01 0.01 0.01 0.01 0.01 0.01 0.01 0.01 0.01 0.01 0.00 0.01 0.01 0.01 0.01 0.00 0.00 0.00 0.01

GEFSMA_prec_meanprec_276.txt.gz
QPF
0.08 0.03 0.02 0.01 0.01 0.03 0.03 0.03 0.02 0.03 0.03 0.05 0.07 0.03 0.00 0.00 0.00 0.00 0.00 0.00 0.00 0.01 0.01 0.02 0.02 0.02 0.02 0.03 0.02 0.02 0.02 0.01 0.01 0.01 0.01 0.02 0.01 0.01 0.02 0.02 0.02 0.02 0.02
0.09 0.06 0.03 0.02 0.01 0.03 0.04 0.04 0.03 0.03 0.03 0.04 0.07 0.04 0.00 0.00 0.00 0.00 0.00 0.00 0.00 0.01 0.01 0.01 0.02 0.03 0.03 0.03 0.03 0.02 0.02 0.01 0.01 0.01 0.01 0.01 0.01 0.02 0.02 0.02 0.02 0.02 0.02
0.09 0.08 0.05 0.02 0.02 0.03 0.05 0.06 0.04 0.03 0.04 0.04 0.06 0.04 0.01 0.00 0.00 0.00 0.00 0.00 0.00 0.00 0.01 0.01 0.02 0.02 0.03 0.04 0.03 0.03 0.02 0.02 0.02 0.02 0.02 0.02 0.02 0.02 0.02 0.02 0.02 0.03 0.03
0.07 0.08 0.06 0.04 0.02 0.03 0.05 0.07 0.07 0.05 0.04 0.04 0.05 0.03 0.01 0.00 0.00 0.00 0.00 0.00 0.00 0.00 0.01 0.02 0.02 0.02 0.03 0.03 0.04 0.03 0.02 0.03 0.03 0.02 0.03 0.03 0.03 0.03 0.03 0.03 0.03 0.03 0.03
0.10 0.07 0.07 0.06 0.04 0.03 0.03 0.06 0.07 0.06 0.05 0.05 0.05 0.04 0.01 0.00 0.00 0.00 0.00 0.00 0.00 0.01 0.02 0.02 0.02 0.02 0.02 0.02 0.03 0.04 0.03 0.03 0.03 0.04 0.03 0.03 0.03 0.03 0.03 0.03 0.03 0.03 0.03
0.14 0.09 0.07 0.07 0.05 0.03 0.03 0.04 0.06 0.06 0.05 0.05 0.04 0.03 0.02 0.01 0.01 0.01 0.01 0.01 0.01 0.01 0.03 0.04 0.02 0.02 0.01 0.01 0.01 0.03 0.04 0.04 0.03 0.04 0.03 0.03 0.03 0.03 0.03 0.03 0.03 0.03 0.03
0.15 0.12 0.08 0.07 0.06 0.05 0.04 0.05 0.06 0.06 0.05 0.05 0.05 0.03 0.02 0.02 0.02 0.01 0.01 0.01 0.02 0.02 0.03 0.04 0.02 0.02 0.01 0.01 0.01 0.02 0.03 0.04 0.05 0.04 0.03 0.03 0.03 0.02 0.03 0.03 0.03 0.03 0.03
0.15 0.14 0.12 0.10 0.09 0.08 0.07 0.08 0.08 0.07 0.07 0.06 0.05 0.04 0.04 0.03 0.03 0.02 0.02 0.02 0.03 0.03 0.03 0.03 0.02 0.01 0.01 0.01 0.01 0.01 0.02 0.03 0.05 0.05 0.03 0.03 0.02 0.03 0.03 0.03 0.03 0.03 0.03
0.16 0.15 0.14 0.13 0.11 0.11 0.11 0.12 0.13 0.10 0.09 0.08 0.06 0.05 0.04 0.04 0.05 0.04 0.03 0.02 0.04 0.04 0.04 0.03 0.03 0.02 0.01 0.01 0.01 0.02 0.02 0.04 0.04 0.04 0.03 0.03 0.03 0.03 0.03 0.03 0.02 0.02 0.02
0.18 0.14 0.12 0.10 0.09 0.09 0.10 0.12 0.15 0.13 0.11 0.10 0.08 0.05 0.03 0.04 0.05 0.05 0.04 0.03 0.04 0.04 0.04 0.04 0.03 0.03 0.02 0.02 0.02 0.02 0.02 0.03 0.04 0.04 0.03 0.03 0.02 0.03 0.03 0.02 0.02 0.02 0.02
0.17 0.12 0.10 0.09 0.07 0.07 0.09 0.11 0.13 0.13 0.11 0.10 0.08 0.06 0.03 0.04 0.03 0.02 0.03 0.03 0.03 0.03 0.03 0.03 0.03 0.02 0.03 0.03 0.03 0.02 0.03 0.03 0.04 0.04 0.03 0.03 0.02 0.02 0.02 0.02 0.02 0.02 0.02
0.16 0.12 0.11 0.11 0.09 0.08 0.07 0.09 0.12 0.13 0.11 0.08 0.07 0.07 0.05 0.05 0.03 0.02 0.03 0.03 0.03 0.02 0.02 0.03 0.03 0.02 0.02 0.02 0.03 0.04 0.03 0.03 0.04 0.04 0.03 0.02 0.02 0.02 0.01 0.01 0.01 0.02 0.02
0.15 0.13 0.11 0.10 0.09 0.07 0.06 0.06 0.09 0.12 0.11 0.09 0.07 0.07 0.05 0.04 0.03 0.02 0.03 0.03 0.03 0.02 0.02 0.02 0.03 0.03 0.02 0.02 0.03 0.04 0.03 0.03 0.03 0.03 0.02 0.02 0.01 0.01 0.01 0.01 0.01 0.02 0.02
0.11 0.11 0.10 0.10 0.08 0.07 0.06 0.06 0.07 0.10 0.10 0.08 0.06 0.04 0.03 0.03 0.02 0.02 0.02 0.02 0.03 0.03 0.03 0.03 0.03 0.03 0.03 0.02 0.02 0.03 0.03 0.04 0.03 0.02 0.02 0.02 0.01 0.01 0.01 0.01 0.01 0.01 0.01
0.10 0.11 0.09 0.09 0.08 0.06 0.06 0.06 0.07 0.08 0.08 0.08 0.07 0.05 0.03 0.02 0.02 0.02 0.02 0.02 0.03 0.04 0.04 0.03 0.03 0.03 0.03 0.02 0.03 0.03 0.02 0.03 0.03 0.02 0.02 0.02 0.01 0.01 0.01 0.01 0.01 0.01 0.01
0.10 0.10 0.11 0.10 0.08 0.06 0.05 0.05 0.05 0.06 0.08 0.09 0.09 0.08 0.06 0.04 0.03 0.03 0.02 0.02 0.02 0.03 0.04 0.03 0.03 0.03 0.02 0.02 0.03 0.03 0.03 0.02 0.02 0.02 0.02 0.02 0.01 0.01 0.01 0.01 0.01 0.01 0.01
0.11 0.10 0.11 0.12 0.10 0.08 0.07 0.06 0.05 0.05 0.07 0.08 0.07 0.07 0.07 0.05 0.04 0.04 0.03 0.02 0.02 0.03 0.03 0.03 0.03 0.03 0.02 0.02 0.02 0.03 0.03 0.03 0.02 0.02 0.03 0.02 0.02 0.02 0.02 0.02 0.02 0.02 0.01
0.14 0.12 0.11 0.11 0.12 0.12 0.12 0.12 0.10 0.09 0.09 0.09 0.07 0.06 0.06 0.05 0.05 0.05 0.04 0.03 0.03 0.03 0.04 0.04 0.03 0.02 0.02 0.02 0.02 0.03 0.03 0.03 0.03 0.03 0.03 0.03 0.02 0.02 0.02 0.02 0.02 0.02 0.02
0.13 0.13 0.13 0.12 0.12 0.12 0.13 0.12 0.11 0.09 0.08 0.08 0.07 0.05 0.05 0.04 0.05 0.05 0.04 0.04 0.04 0.04 0.04 0.04 0.03 0.03 0.03 0.02 0.03 0.03 0.04 0.04 0.04 0.03 0.03 0.03 0.03 0.02 0.02 0.02 0.02 0.02 0.03
0.09 0.11 0.13 0.12 0.11 0.10 0.10 0.09 0.10 0.08 0.07 0.06 0.06 0.05 0.04 0.04 0.04 0.04 0.05 0.05 0.04 0.04 0.03 0.03 0.03 0.03 0.03 0.03 0.04 0.05 0.05 0.05 0.05 0.04 0.04 0.03 0.03 0.03 0.02 0.02 0.02 0.02 0.03
0.06 0.07 0.07 0.08 0.09 0.09 0.09 0.08 0.07 0.07 0.06 0.06 0.05 0.04 0.03 0.03 0.03 0.03 0.03 0.03 0.04 0.03 0.02 0.02 0.03 0.03 0.03 0.04 0.05 0.04 0.05 0.05 0.06 0.05 0.04 0.04 0.03 0.03 0.03 0.02 0.02 0.01 0.02
0.04 0.04 0.05 0.05 0.06 0.07 0.08 0.06 0.06 0.05 0.04 0.04 0.04 0.04 0.03 0.03 0.03 0.02 0.02 0.02 0.02 0.02 0.02 0.02 0.02 0.02 0.02 0.02 0.03 0.04 0.04 0.05 0.05 0.04 0.03 0.03 0.02 0.02 0.02 0.02 0.02 0.01 0.02
0.04 0.04 0.05 0.05 0.05 0.05 0.05 0.05 0.05 0.04 0.04 0.04 0.03 0.03 0.03 0.02 0.02 0.01 0.02 0.01 0.01 0.01 0.02 0.02 0.02 0.02 0.02 0.02 0.02 0.02 0.03 0.03 0.03 0.03 0.03 0.03 0.03 0.02 0.02 0.02 0.02 0.02 0.02
0.03 0.03 0.04 0.05 0.05 0.05 0.05 0.04 0.04 0.03 0.03 0.03 0.02 0.02 0.02 0.02 0.01 0.01 0.01 0.01 0.01 0.01 0.01 0.01 0.01 0.02 0.02 0.02 0.02 0.02 0.03 0.03 0.03 0.03 0.03 0.03 0.03 0.03 0.03 0.03 0.03 0.02 0.02
0.03 0.03 0.03 0.04 0.05 0.06 0.05 0.04 0.03 0.02 0.03 0.03 0.02 0.02 0.01 0.01 0.01 0.01 0.01 0.01 0.01 0.01 0.01 0.01 0.01 0.01 0.02 0.02 0.02 0.02 0.02 0.03 0.03 0.03 0.02 0.03 0.03 0.03 0.03 0.03 0.03 0.03 0.02
0.03 0.03 0.02 0.03 0.04 0.05 0.05 0.04 0.03 0.02 0.02 0.03 0.02 0.02 0.01 0.01 0.01 0.01 0.01 0.01 0.01 0.01 0.01 0.01 0.01 0.01 0.02 0.02 0.02 0.02 0.02 0.02 0.03 0.02 0.02 0.03 0.03 0.04 0.04 0.03 0.03 0.03 0.03

GEFSMA_prec_meanprec_282.txt.gz
QPF
0.10 0.11 0.08 0.08 0.07 0.04 0.03 0.02 0.01 0.01 0.00 0.00 0.00 0.03 0.03 0.03 0.02 0.01 0.01 0.00 0.00 0.01 0.01 0.02 0.02 0.02 0.03 0.04 0.04 0.03 0.02 0.02 0.02 0.02 0.02 0.03 0.03 0.02 0.02 0.02 0.03 0.02 0.02
0.08 0.11 0.11 0.09 0.07 0.05 0.03 0.02 0.01 0.01 0.00 0.00 0.01 0.03 0.03 0.03 0.03 0.02 0.02 0.00 0.00 0.01 0.01 0.02 0.02 0.02 0.02 0.03 0.04 0.05 0.04 0.03 0.02 0.02 0.02 0.02 0.03 0.02 0.02 0.03 0.03 0.02 0.02
0.06 0.09 0.11 0.12 0.09 0.06 0.04 0.02 0.01 0.01 0.00 0.00 0.01 0.03 0.04 0.03 0.03 0.03 0.02 0.01 0.00 0.01 0.01 0.01 0.02 0.02 0.02 0.02 0.03 0.04 0.05 0.05 0.04 0.03 0.02 0.02 0.02 0.02 0.02 0.03 0.02 0.02 0.02
0.06 0.09 0.09 0.11 0.12 0.09 0.06 0.03 0.02 0.01 0.01 0.01 0.01 0.02 0.03 0.03 0.03 0.03 0.03 0.01 0.00 0.01 0.01 0.01 0.01 0.02 0.02 0.02 0.03 0.04 0.05 0.05 0.05 0.04 0.03 0.03 0.02 0.02 0.02 0.02 0.02 0.02 0.02
0.09 0.10 0.10 0.10 0.12 0.12 0.08 0.05 0.02 0.01 0.01 0.01 0.01 0.02 0.03 0.03 0.03 0.02 0.02 0.01 0.00 0.01 0.01 0.01 0.01 0.01 0.03 0.02 0.03 0.03 0.04 0.05 0.06 0.06 0.05 0.03 0.03 0.02 0.02 0.02 0.02 0.02 0.02
0.11 0.11 0.13 0.13 0.12 0.12 0.09 0.05 0.03 0.01 0.01 0.01 0.02 0.02 0.02 0.02 0.03 0.03 0.02 0.01 0.01 0.01 0.01 0.01 0.01 0.01 0.03 0.02 0.02 0.03 0.04 0.05 0.06 0.08 0.07 0.05 0.04 0.03 0.03 0.02 0.02 0.02 0.02
0.09 0.10 0.11 0.12 0.12 0.11 0.10 0.06 0.03 0.03 0.02 0.01 0.02 0.03 0.03 0.03 0.03 0.04 0.03 0.01 0.01 0.01 0.01 0.00 0.00 0.01 0.03 0.03 0.02 0.02 0.03 0.03 0.04 0.07 0.09 0.08 0.05 0.05 0.03 0.03 0.02 0.02 0.03
0.08 0.09 0.11 0.13 0.14 0.16 0.15 0.13 0.10 0.06 0.04 0.04 0.04 0.06 0.06 0.07 0.06 0.06 0.04 0.02 0.02 0.01 0.01 0.01 0.01 0.01 0.03 0.03 0.02 0.02 0.02 0.02 0.02 0.04 0.07 0.08 0.07 0.06 0.05 0.04 0.03 0.03 0.03
0.12 0.13 0.14 0.16 0.19 0.19 0.17 0.15 0.14 0.12 0.10 0.09 0.09 0.10 0.10 0.09 0.07 0.07 0.06 0.03 0.02 0.02 0.01 0.01 0.01 0.02 0.03 0.03 0.03 0.02 0.02 0.02 0.02 0.04 0.05 0.06 0.07 0.07 0.06 0.05 0.05 0.04 0.03
0.13 0.14 0.13 0.14 0.14 0.14 0.13 0.10 0.08 0.07 0.07 0.07 0.07 0.09 0.09 0.07 0.07 0.08 0.08 0.04 0.03 0.03 0.02 0.02 0.02 0.02 0.03 0.04 0.04 0.03 0.02 0.02 0.02 0.04 0.05 0.06 0.07 0.08 0.07 0.06 0.05 0.05 0.04
0.10 0.11 0.11 0.12 0.13 0.13 0.11 0.11 0.09 0.07 0.06 0.05 0.05 0.05 0.07 0.08 0.07 0.08 0.08 0.05 0.03 0.04 0.03 0.02 0.03 0.04 0.04 0.04 0.04 0.03 0.02 0.01 0.02 0.04 0.06 0.06 0.07 0.09 0.08 0.06 0.05 0.05 0.04
0.10 0.10 0.10 0.10 0.11 0.12 0.12 0.12 0.11 0.09 0.07 0.04 0.04 0.04 0.06 0.08 0.10 0.07 0.06 0.05 0.05 0.05 0.04 0.04 0.05 0.06 0.06 0.04 0.04 0.03 0.02 0.01 0.02 0.05 0.08 0.07 0.07 0.08 0.08 0.07 0.07 0.05 0.04
0.10 0.11 0.10 0.10 0.09 0.07 0.07 0.07 0.07 0.08 0.08 0.06 0.04 0.04 0.06 0.09 0.09 0.05 0.04 0.04 0.05 0.05 0.06 0.06 0.05 0.06 0.06 0.04 0.03 0.02 0.02 0.02 0.02 0.06 0.11 0.08 0.06 0.05 0.07 0.08 0.07 0.06 0.04
0.08 0.07 0.08 0.08 0.08 0.07 0.06 0.06 0.07 0.07 0.08 0.07 0.07 0.07 0.08 0.10 0.09 0.06 0.04 0.04 0.04 0.05 0.05 0.05 0.04 0.04 0.04 0.03 0.02 0.02 0.02 0.03 0.03 0.05 0.13 0.09 0.06 0.04 0.04 0.06 0.06 0.05 0.04
0.09 0.07 0.08 0.09 0.10 0.09 0.08 0.07 0.08 0.08 0.08 0.08 0.07 0.07 0.07 0.07 0.08 0.06 0.04 0.03 0.04 0.04 0.04 0.05 0.04 0.04 0.03 0.02 0.02 0.02 0.01 0.02 0.03 0.05 0.12 0.11 0.07 0.05 0.04 0.04 0.05 0.05 0.04
0.08 0.07 0.07 0.08 0.09 0.09 0.08 0.07 0.07 0.07 0.07 0.07 0.06 0.06 0.06 0.05 0.07 0.06 0.04 0.04 0.03 0.03 0.03 0.04 0.04 0.03 0.03 0.02 0.02 0.01 0.01 0.02 0.03 0.04 0.07 0.10 0.08 0.06 0.05 0.04 0.04 0.04 0.04
0.07 0.06 0.06 0.07 0.08 0.07 0.08 0.08 0.07 0.07 0.07 0.07 0.06 0.05 0.05 0.04 0.05 0.06 0.04 0.04 0.04 0.03 0.03 0.04 0.04 0.03 0.03 0.02 0.01 0.01 0.01 0.01 0.02 0.03 0.05 0.07 0.08 0.06 0.05 0.03 0.03 0.04 0.04
0.11 0.08 0.07 0.07 0.07 0.06 0.06 0.07 0.07 0.07 0.07 0.07 0.07 0.05 0.04 0.04 0.05 0.06 0.04 0.04 0.03 0.03 0.03 0.04 0.03 0.03 0.03 0.02 0.01 0.01 0.01 0.01 0.01 0.03 0.04 0.05 0.08 0.05 0.04 0.03 0.03 0.04 0.04
0.17 0.13 0.11 0.12 0.11 0.09 0.07 0.07 0.07 0.06 0.07 0.07 0.07 0.05 0.05 0.05 0.05 0.06 0.05 0.04 0.04 0.03 0.03 0.04 0.04 0.04 0.03 0.02 0.02 0.02 0.01 0.01 0.02 0.03 0.04 0.05 0.06 0.04 0.03 0.03 0.03 0.03 0.04
0.13 0.13 0.13 0.13 0.14 0.14 0.13 0.10 0.08 0.06 0.06 0.06 0.06 0.06 0.05 0.04 0.05 0.05 0.05 0.05 0.04 0.04 0.04 0.04 0.04 0.03 0.03 0.03 0.02 0.02 0.02 0.02 0.02 0.04 0.05 0.04 0.04 0.03 0.03 0.02 0.02 0.03 0.03
0.08 0.07 0.07 0.09 0.10 0.12 0.14 0.14 0.12 0.09 0.07 0.07 0.07 0.07 0.07 0.07 0.06 0.05 0.04 0.04 0.04 0.04 0.04 0.03 0.04 0.03 0.03 0.03 0.03 0.02 0.02 0.02 0.03 0.04 0.05 0.04 0.02 0.02 0.02 0.02 0.03 0.03 0.03
0.07 0.06 0.05 0.05 0.07 0.09 0.11 0.11 0.12 0.10 0.09 0.08 0.08 0.07 0.07 0.07 0.06 0.05 0.04 0.04 0.04 0.04 0.03 0.03 0.03 0.03 0.03 0.03 0.03 0.02 0.03 0.03 0.03 0.04 0.04 0.03 0.02 0.02 0.01 0.02 0.03 0.03 0.03
0.05 0.04 0.04 0.05 0.06 0.08 0.09 0.08 0.09 0.08 0.08 0.06 0.06 0.06 0.06 0.05 0.05 0.04 0.04 0.04 0.03 0.03 0.03 0.03 0.02 0.02 0.03 0.03 0.03 0.02 0.02 0.03 0.03 0.03 0.03 0.04 0.03 0.02 0.02 0.02 0.03 0.03 0.04
0.04 0.03 0.03 0.04 0.06 0.07 0.08 0.07 0.07 0.06 0.06 0.05 0.05 0.05 0.04 0.04 0.04 0.04 0.03 0.03 0.03 0.02 0.02 0.02 0.02 0.02 0.02 0.02 0.02 0.02 0.03 0.03 0.03 0.03 0.03 0.03 0.03 0.02 0.02 0.02 0.03 0.03 0.03
0.03 0.03 0.03 0.03 0.05 0.07 0.07 0.06 0.05 0.05 0.04 0.04 0.03 0.03 0.03 0.03 0.03 0.03 0.03 0.02 0.02 0.01 0.01 0.01 0.01 0.01 0.01 0.01 0.02 0.03 0.03 0.03 0.03 0.03 0.03 0.03 0.03 0.02 0.02 0.02 0.03 0.04 0.03
0.03 0.03 0.02 0.02 0.03 0.05 0.07 0.05 0.04 0.04 0.04 0.03 0.03 0.03 0.04 0.03 0.03 0.02 0.01 0.01 0.01 0.01 0.01 0.01 0.01 0.01 0.01 0.01 0.02 0.02 0.02 0.03 0.03 0.03 0.03 0.03 0.03 0.03 0.02 0.02 0.02 0.03 0.03

GEFSMA_prec_meanprec_288.txt.gz
QPF
0.04 0.03 0.03 0.03 0.03 0.04 0.05 0.05 0.04 0.03 0.02 0.01 0.01 0.00 0.00 0.01 0.01 0.00 0.01 0.02 0.02 0.02 0.04 0.04 0.03 0.03 0.03 0.02 0.01 0.01 0.01 0.01 0.01 0.01 0.01 0.02 0.02 0.02 0.03 0.04 0.06 0.08 0.07
0.03 0.04 0.04 0.04 0.04 0.04 0.04 0.05 0.05 0.04 0.03 0.02 0.01 0.00 0.00 0.01 0.01 0.00 0.00 0.02 0.02 0.02 0.03 0.05 0.04 0.03 0.03 0.03 0.02 0.02 0.02 0.02 0.02 0.02 0.02 0.02 0.02 0.02 0.03 0.04 0.05 0.05 0.08
0.03 0.03 0.04 0.04 0.04 0.04 0.05 0.06 0.05 0.06 0.05 0.03 0.02 0.01 0.01 0.01 0.01 0.00 0.01 0.02 0.02 0.02 0.02 0.04 0.05 0.04 0.03 0.02 0.02 0.02 0.02 0.03 0.03 0.03 0.03 0.03 0.03 0.03 0.03 0.03 0.04 0.04 0.05
0.04 0.04 0.05 0.06 0.05 0.04 0.06 0.07 0.06 0.07 0.06 0.04 0.03 0.02 0.02 0.02 0.01 0.01 0.01 0.03 0.03 0.03 0.02 0.02 0.05 0.05 0.03 0.01 0.02 0.02 0.02 0.03 0.03 0.04 0.04 0.05 0.03 0.03 0.03 0.03 0.03 0.03 0.03
0.04 0.04 0.04 0.06 0.07 0.07 0.06 0.07 0.07 0.06 0.05 0.04 0.03 0.02 0.02 0.01 0.01 0.01 0.01 0.03 0.04 0.03 0.03 0.02 0.04 0.05 0.02 0.02 0.02 0.02 0.02 0.02 0.03 0.03 0.04 0.05 0.04 0.03 0.03 0.03 0.03 0.03 0.03
0.05 0.05 0.05 0.05 0.08 0.10 0.09 0.09 0.10 0.10 0.08 0.06 0.05 0.03 0.02 0.01 0.01 0.01 0.01 0.03 0.03 0.03 0.03 0.02 0.02 0.04 0.02 0.02 0.02 0.02 0.02 0.02 0.02 0.03 0.03 0.04 0.05 0.04 0.04 0.04 0.05 0.04 0.04
0.04 0.04 0.04 0.04 0.06 0.09 0.11 0.10 0.09 0.10 0.10 0.08 0.07 0.05 0.02 0.01 0.02 0.02 0.02 0.03 0.03 0.03 0.03 0.03 0.02 0.03 0.02 0.01 0.01 0.01 0.02 0.02 0.02 0.03 0.03 0.04 0.05 0.05 0.04 0.04 0.04 0.05 0.05
0.04 0.04 0.03 0.04 0.05 0.07 0.10 0.11 0.12 0.13 0.10 0.08 0.07 0.06 0.04 0.03 0.03 0.03 0.03 0.04 0.04 0.04 0.04 0.04 0.03 0.02 0.01 0.01 0.01 0.01 0.02 0.03 0.02 0.02 0.02 0.03 0.05 0.05 0.04 0.05 0.05 0.05 0.05
0.06 0.05 0.05 0.05 0.06 0.08 0.09 0.11 0.12 0.14 0.14 0.11 0.08 0.07 0.07 0.06 0.04 0.04 0.05 0.04 0.04 0.04 0.04 0.04 0.03 0.02 0.01 0.01 0.01 0.01 0.01 0.04 0.03 0.02 0.02 0.02 0.04 0.04 0.04 0.04 0.04 0.05 0.05
0.06 0.06 0.06 0.06 0.07 0.08 0.09 0.09 0.10 0.12 0.14 0.15 0.12 0.09 0.07 0.06 0.04 0.04 0.05 0.04 0.03 0.04 0.04 0.04 0.03 0.02 0.01 0.00 0.01 0.01 0.02 0.04 0.03 0.03 0.02 0.02 0.02 0.03 0.04 0.04 0.04 0.05 0.05
0.09 0.08 0.08 0.07 0.08 0.09 0.09 0.09 0.10 0.12 0.13 0.14 0.12 0.09 0.07 0.06 0.05 0.05 0.07 0.06 0.05 0.05 0.04 0.04 0.03 0.02 0.01 0.00 0.01 0.01 0.02 0.04 0.04 0.02 0.01 0.01 0.02 0.02 0.03 0.03 0.04 0.04 0.04
0.11 0.09 0.08 0.08 0.08 0.09 0.09 0.10 0.12 0.13 0.13 0.13 0.12 0.10 0.08 0.07 0.06 0.06 0.08 0.07 0.05 0.05 0.04 0.04 0.03 0.02 0.01 0.01 0.02 0.02 0.02 0.04 0.05 0.02 0.01 0.01 0.02 0.01 0.02 0.02 0.03 0.04 0.05
0.11 0.09 0.08 0.09 0.10 0.11 0.10 0.10 0.11 0.12 0.12 0.12 0.12 0.12 0.10 0.09 0.07 0.06 0.07 0.06 0.04 0.04 0.05 0.06 0.05 0.04 0.03 0.03 0.04 0.04 0.04 0.06 0.07 0.02 0.01 0.01 0.01 0.01 0.01 0.01 0.02 0.03 0.05
0.11 0.11 0.10 0.10 0.09 0.09 0.09 0.09 0.10 0.10 0.10 0.11 0.12 0.12 0.12 0.11 0.09 0.07 0.07 0.07 0.06 0.07 0.08 0.08 0.07 0.05 0.05 0.06 0.08 0.08 0.07 0.08 0.08 0.02 0.01 0.01 0.01 0.01 0.01 0.01 0.02 0.03 0.04
0.07 0.08 0.09 0.08 0.07 0.06 0.07 0.07 0.08 0.09 0.09 0.10 0.10 0.11 0.12 0.12 0.13 0.13 0.11 0.10 0.09 0.09 0.10 0.09 0.07 0.06 0.07 0.08 0.09 0.08 0.06 0.07 0.07 0.03 0.02 0.02 0.01 0.01 0.01 0.02 0.02 0.02 0.03
0.06 0.07 0.07 0.07 0.07 0.07 0.07 0.07 0.07 0.08 0.08 0.09 0.10 0.10 0.11 0.11 0.12 0.14 0.13 0.11 0.09 0.09 0.11 0.10 0.08 0.07 0.06 0.07 0.07 0.06 0.05 0.05 0.05 0.04 0.03 0.02 0.02 0.02 0.02 0.02 0.02 0.02 0.03
0.06 0.07 0.06 0.05 0.06 0.07 0.07 0.07 0.07 0.08 0.08 0.08 0.08 0.08 0.09 0.09 0.09 0.12 0.13 0.10 0.08 0.08 0.09 0.09 0.08 0.07 0.05 0.05 0.05 0.04 0.03 0.03 0.04 0.03 0.02 0.02 0.02 0.02 0.02 0.02 0.02 0.02 0.02
0.06 0.06 0.07 0.06 0.06 0.07 0.07 0.07 0.07 0.07 0.07 0.08 0.08 0.07 0.07 0.07 0.07 0.09 0.12 0.11 0.08 0.06 0.06 0.06 0.06 0.05 0.04 0.04 0.04 0.03 0.02 0.02 0.03 0.03 0.02 0.02 0.02 0.03 0.03 0.03 0.02 0.02 0.02
0.05 0.06 0.07 0.07 0.07 0.08 0.08 0.08 0.07 0.07 0.07 0.07 0.07 0.07 0.06 0.06 0.05 0.07 0.09 0.08 0.05 0.04 0.03 0.04 0.05 0.05 0.04 0.03 0.03 0.02 0.02 0.02 0.02 0.02 0.02 0.02 0.02 0.04 0.04 0.03 0.02 0.02 0.01
0.05 0.06 0.07 0.08 0.08 0.09 0.09 0.09 0.09 0.08 0.07 0.06 0.06 0.06 0.06 0.05 0.04 0.06 0.07 0.06 0.04 0.03 0.03 0.04 0.04 0.04 0.04 0.04 0.03 0.03 0.02 0.02 0.01 0.01 0.02 0.03 0.04 0.05 0.05 0.05 0.03 0.02 0.01
0.06 0.05 0.06 0.07 0.08 0.08 0.08 0.08 0.08 0.08 0.07 0.07 0.06 0.06 0.06 0.05 0.05 0.05 0.06 0.06 0.04 0.03 0.03 0.04 0.04 0.04 0.04 0.04 0.03 0.02 0.02 0.02 0.02 0.02 0.02 0.03 0.04 0.04 0.05 0.06 0.05 0.03 0.02
0.06 0.06 0.06 0.06 0.06 0.07 0.08 0.07 0.07 0.07 0.06 0.06 0.06 0.06 0.06 0.07 0.06 0.06 0.07 0.05 0.04 0.03 0.04 0.04 0.04 0.04 0.04 0.03 0.02 0.02 0.02 0.02 0.03 0.03 0.03 0.04 0.04 0.04 0.04 0.05 0.06 0.05 0.03
0.06 0.07 0.06 0.06 0.06 0.06 0.07 0.06 0.06 0.05 0.06 0.06 0.06 0.06 0.06 0.06 0.05 0.05 0.06 0.05 0.04 0.04 0.04 0.04 0.04 0.04 0.04 0.03 0.02 0.02 0.02 0.02 0.03 0.03 0.03 0.03 0.04 0.04 0.04 0.04 0.05 0.06 0.05
0.07 0.07 0.06 0.05 0.05 0.05 0.06 0.06 0.05 0.04 0.05 0.06 0.06 0.06 0.06 0.05 0.05 0.05 0.05 0.04 0.04 0.04 0.04 0.03 0.03 0.03 0.03 0.03 0.02 0.02 0.02 0.02 0.02 0.02 0.03 0.03 0.03 0.03 0.03 0.03 0.04 0.04 0.05
0.07 0.06 0.05 0.04 0.04 0.04 0.05 0.06 0.06 0.05 0.05 0.05 0.05 0.05 0.05 0.05 0.05 0.05 0.04 0.04 0.03 0.04 0.03 0.03 0.03 0.03 0.03 0.02 0.02 0.02 0.02 0.02 0.01 0.01 0.02 0.02 0.03 0.03 0.03 0.03 0.03 0.03 0.03
0.06 0.05 0.04 0.03 0.03 0.03 0.05 0.06 0.05 0.05 0.05 0.05 0.04 0.04 0.04 0.04 0.04 0.04 0.03 0.03 0.03 0.04 0.03 0.03 0.03 0.02 0.02 0.01 0.01 0.01 0.02 0.02 0.02 0.01 0.01 0.02 0.02 0.03 0.04 0.03 0.02 0.02 0.02

GEFSMA_prec_meanprec_294.txt.gz
QPF
0.02 0.02 0.02 0.02 0.02 0.02 0.02 0.02 0.02 0.02 0.01 0.01 0.01 0.00 0.00 0.00 0.00 0.00 0.00 0.00 0.01 0.01 0.01 0.01 0.01 0.01 0.03 0.04 0.04 0.04 0.03 0.03 0.03 0.02 0.02 0.01 0.02 0.02 0.02 0.03 0.05 0.06 0.07
0.03 0.02 0.02 0.02 0.02 0.02 0.03 0.02 0.02 0.02 0.01 0.01 0.01 0.01 0.00 0.00 0.00 0.00 0.00 0.00 0.00 0.00 0.01 0.01 0.01 0.02 0.02 0.04 0.04 0.03 0.02 0.02 0.03 0.03 0.03 0.04 0.04 0.03 0.03 0.04 0.04 0.05 0.07
0.04 0.03 0.03 0.02 0.02 0.02 0.03 0.03 0.02 0.02 0.02 0.02 0.02 0.01 0.01 0.01 0.00 0.00 0.00 0.00 0.00 0.00 0.00 0.01 0.01 0.02 0.03 0.04 0.05 0.03 0.02 0.02 0.02 0.02 0.03 0.03 0.04 0.04 0.04 0.04 0.05 0.06 0.07
0.06 0.04 0.04 0.04 0.03 0.03 0.03 0.03 0.02 0.01 0.01 0.01 0.02 0.02 0.01 0.01 0.01 0.01 0.00 0.00 0.00 0.00 0.00 0.01 0.01 0.02 0.03 0.05 0.06 0.05 0.03 0.02 0.02 0.02 0.02 0.02 0.03 0.03 0.04 0.04 0.05 0.06 0.07
0.07 0.06 0.04 0.05 0.04 0.03 0.04 0.04 0.03 0.02 0.01 0.01 0.01 0.02 0.01 0.01 0.01 0.01 0.01 0.01 0.01 0.01 0.01 0.01 0.01 0.01 0.03 0.05 0.05 0.06 0.04 0.02 0.02 0.02 0.02 0.02 0.02 0.02 0.03 0.03 0.04 0.05 0.06
0.08 0.08 0.06 0.05 0.05 0.04 0.05 0.05 0.03 0.02 0.02 0.02 0.02 0.03 0.02 0.01 0.01 0.01 0.01 0.01 0.01 0.01 0.00 0.00 0.01 0.01 0.04 0.04 0.05 0.07 0.06 0.03 0.02 0.02 0.02 0.02 0.02 0.02 0.02 0.03 0.03 0.04 0.05
0.09 0.09 0.08 0.06 0.05 0.05 0.05 0.07 0.04 0.03 0.03 0.02 0.03 0.03 0.03 0.02 0.02 0.02 0.02 0.02 0.02 0.01 0.01 0.01 0.01 0.02 0.04 0.04 0.05 0.05 0.07 0.04 0.03 0.02 0.02 0.03 0.03 0.02 0.02 0.02 0.02 0.03 0.04
0.11 0.10 0.09 0.08 0.07 0.06 0.06 0.07 0.07 0.04 0.03 0.03 0.03 0.04 0.04 0.03 0.02 0.02 0.02 0.02 0.02 0.01 0.01 0.01 0.01 0.02 0.04 0.05 0.04 0.05 0.05 0.06 0.03 0.03 0.03 0.03 0.03 0.03 0.03 0.03 0.02 0.02 0.03
0.11 0.11 0.10 0.10 0.08 0.06 0.06 0.06 0.06 0.06 0.05 0.04 0.04 0.05 0.05 0.04 0.03 0.02 0.02 0.02 0.02 0.02 0.01 0.01 0.01 0.02 0.03 0.07 0.04 0.04 0.04 0.05 0.04 0.03 0.03 0.03 0.04 0.05 0.04 0.03 0.03 0.03 0.03
0.12 0.15 0.12 0.11 0.11 0.09 0.06 0.06 0.06 0.06 0.07 0.08 0.06 0.05 0.05 0.04 0.04 0.03 0.02 0.02 0.02 0.02 0.02 0.02 0.02 0.02 0.03 0.06 0.06 0.03 0.04 0.04 0.03 0.02 0.03 0.03 0.04 0.06 0.05 0.05 0.03 0.03 0.03
0.11 0.15 0.16 0.13 0.12 0.11 0.09 0.06 0.06 0.06 0.06 0.07 0.09 0.09 0.07 0.06 0.05 0.05 0.03 0.03 0.03 0.03 0.02 0.03 0.03 0.03 0.03 0.05 0.07 0.03 0.03 0.04 0.03 0.02 0.02 0.02 0.05 0.07 0.07 0.06 0.04 0.03 0.03
0.09 0.11 0.13 0.13 0.13 0.11 0.10 0.09 0.07 0.07 0.07 0.08 0.08 0.09 0.10 0.10 0.07 0.06 0.05 0.04 0.03 0.02 0.02 0.03 0.03 0.04 0.04 0.04 0.06 0.03 0.02 0.03 0.03 0.03 0.02 0.02 0.05 0.07 0.07 0.07 0.04 0.03 0.03
0.08 0.11 0.10 0.10 0.11 0.11 0.10 0.10 0.09 0.08 0.08 0.10 0.11 0.11 0.10 0.10 0.09 0.08 0.07 0.06 0.05 0.03 0.02 0.03 0.05 0.05 0.04 0.03 0.04 0.04 0.02 0.03 0.05 0.06 0.02 0.02 0.06 0.07 0.07 0.05 0.03 0.03 0.03
0.06 0.09 0.10 0.09 0.09 0.10 0.10 0.10 0.09 0.08 0.07 0.08 0.10 0.10 0.09 0.08 0.09 0.09 0.08 0.07 0.06 0.05 0.04 0.04 0.05 0.05 0.03 0.02 0.03 0.04 0.02 0.04 0.09 0.09 0.03 0.03 0.07 0.07 0.06 0.04 0.03 0.03 0.03
0.06 0.08 0.09 0.09 0.09 0.09 0.09 0.08 0.08 0.07 0.07 0.07 0.07 0.08 0.09 0.08 0.09 0.09 0.08 0.07 0.07 0.06 0.06 0.04 0.04 0.05 0.04 0.04 0.05 0.06 0.06 0.08 0.13 0.10 0.05 0.04 0.08 0.07 0.05 0.04 0.03 0.02 0.03
0.06 0.08 0.08 0.09 0.10 0.09 0.09 0.08 0.07 0.06 0.05 0.06 0.08 0.08 0.08 0.08 0.07 0.07 0.07 0.07 0.07 0.06 0.07 0.07 0.08 0.08 0.06 0.07 0.09 0.10 0.10 0.12 0.15 0.09 0.06 0.06 0.08 0.07 0.05 0.03 0.03 0.02 0.03
0.07 0.08 0.08 0.07 0.08 0.09 0.09 0.08 0.08 0.07 0.06 0.05 0.06 0.08 0.09 0.08 0.08 0.07 0.06 0.05 0.05 0.05 0.06 0.06 0.08 0.08 0.07 0.08 0.09 0.09 0.09 0.12 0.13 0.08 0.06 0.06 0.07 0.06 0.05 0.04 0.03 0.03 0.03
0.09 0.08 0.08 0.07 0.07 0.08 0.08 0.07 0.06 0.07 0.06 0.06 0.06 0.07 0.09 0.09 0.09 0.08 0.07 0.06 0.05 0.04 0.05 0.06 0.07 0.08 0.08 0.08 0.07 0.07 0.09 0.10 0.09 0.07 0.06 0.05 0.05 0.04 0.04 0.04 0.03 0.03 0.03
0.08 0.07 0.07 0.07 0.07 0.07 0.06 0.06 0.05 0.05 0.06 0.06 0.07 0.07 0.07 0.08 0.09 0.08 0.07 0.06 0.06 0.06 0.05 0.05 0.06 0.08 0.08 0.07 0.06 0.06 0.07 0.07 0.07 0.06 0.06 0.05 0.05 0.04 0.03 0.03 0.03 0.02 0.02
0.06 0.05 0.05 0.05 0.05 0.06 0.06 0.06 0.04 0.04 0.05 0.06 0.07 0.07 0.08 0.08 0.08 0.07 0.06 0.06 0.06 0.05 0.04 0.05 0.06 0.08 0.08 0.06 0.06 0.06 0.05 0.05 0.04 0.03 0.04 0.04 0.03 0.03 0.03 0.02 0.02 0.02 0.02
0.05 0.04 0.04 0.04 0.04 0.06 0.07 0.06 0.04 0.05 0.05 0.06 0.06 0.06 0.07 0.07 0.08 0.06 0.06 0.07 0.06 0.05 0.04 0.05 0.06 0.08 0.07 0.06 0.06 0.04 0.04 0.04 0.03 0.03 0.03 0.03 0.02 0.02 0.02 0.02 0.01 0.01 0.01
0.07 0.06 0.04 0.04 0.04 0.05 0.07 0.07 0.05 0.04 0.05 0.05 0.05 0.05 0.05 0.06 0.06 0.06 0.05 0.06 0.05 0.04 0.05 0.05 0.06 0.07 0.06 0.05 0.04 0.03 0.03 0.03 0.03 0.03 0.02 0.02 0.01 0.01 0.01 0.01 0.01 0.01 0.01
0.08 0.07 0.05 0.03 0.04 0.05 0.07 0.07 0.05 0.03 0.03 0.04 0.04 0.04 0.05 0.05 0.05 0.05 0.05 0.05 0.05 0.04 0.04 0.04 0.04 0.05 0.05 0.03 0.03 0.04 0.03 0.03 0.03 0.03 0.02 0.02 0.02 0.02 0.02 0.02 0.02 0.01 0.01
0.08 0.07 0.05 0.04 0.04 0.05 0.07 0.07 0.04 0.03 0.03 0.03 0.04 0.04 0.04 0.04 0.04 0.04 0.04 0.04 0.04 0.04 0.03 0.03 0.04 0.04 0.04 0.03 0.04 0.04 0.04 0.04 0.04 0.03 0.02 0.02 0.02 0.02 0.02 0.01 0.01 0.01 0.01
0.08 0.07 0.05 0.05 0.04 0.05 0.06 0.05 0.04 0.03 0.02 0.03 0.03 0.04 0.04 0.04 0.04 0.04 0.03 0.03 0.03 0.04 0.04 0.03 0.04 0.04 0.04 0.05 0.05 0.04 0.05 0.05 0.05 0.04 0.03 0.02 0.02 0.02 0.02 0.01 0.01 0.01 0.01
0.08 0.06 0.06 0.05 0.04 0.04 0.04 0.04 0.03 0.03 0.03 0.03 0.03 0.03 0.04 0.04 0.05 0.04 0.03 0.03 0.03 0.04 0.03 0.03 0.03 0.03 0.03 0.04 0.04 0.04 0.04 0.04 0.04 0.04 0.03 0.02 0.02 0.02 0.02 0.01 0.01 0.01 0.01

GEFSMA_prec_meanprec_300.txt.gz
QPF
0.06 0.03 0.02 0.03 0.04 0.04 0.03 0.03 0.03 0.02 0.02 0.01 0.01 0.01 0.01 0.00 0.01 0.01 0.01 0.01 0.01 0.01 0.01 0.02 0.02 0.03 0.03 0.02 0.02 0.02 0.01 0.02 0.03 0.04 0.04 0.04 0.05 0.05 0.05 0.04 0.04 0.04 0.05
0.09 0.06 0.03 0.02 0.03 0.04 0.04 0.04 0.04 0.04 0.02 0.01 0.01 0.01 0.01 0.01 0.01 0.01 0.01 0.01 0.01 0.01 0.01 0.02 0.02 0.03 0.03 0.03 0.03 0.03 0.03 0.02 0.02 0.02 0.02 0.02 0.02 0.02 0.02 0.03 0.03 0.04 0.05
0.11 0.12 0.09 0.04 0.03 0.03 0.04 0.04 0.04 0.04 0.03 0.01 0.01 0.01 0.00 0.01 0.01 0.01 0.01 0.01 0.01 0.01 0.01 0.01 0.02 0.03 0.03 0.03 0.04 0.04 0.04 0.04 0.03 0.02 0.02 0.02 0.01 0.01 0.01 0.02 0.02 0.03 0.04
0.08 0.11 0.12 0.09 0.05 0.03 0.03 0.04 0.04 0.04 0.04 0.02 0.01 0.01 0.00 0.00 0.01 0.01 0.01 0.01 0.01 0.01 0.01 0.01 0.01 0.02 0.03 0.03 0.04 0.04 0.04 0.05 0.04 0.03 0.03 0.02 0.02 0.01 0.01 0.01 0.01 0.01 0.02
0.06 0.08 0.10 0.12 0.10 0.06 0.04 0.04 0.04 0.03 0.04 0.03 0.02 0.01 0.01 0.00 0.00 0.00 0.00 0.01 0.01 0.01 0.01 0.01 0.01 0.02 0.02 0.03 0.04 0.04 0.04 0.05 0.05 0.05 0.04 0.03 0.02 0.01 0.01 0.01 0.01 0.01 0.01
0.06 0.07 0.09 0.11 0.11 0.10 0.07 0.05 0.05 0.04 0.04 0.05 0.03 0.01 0.01 0.01 0.00 0.00 0.00 0.00 0.01 0.01 0.01 0.01 0.01 0.01 0.02 0.02 0.03 0.04 0.04 0.04 0.05 0.05 0.04 0.03 0.03 0.02 0.02 0.01 0.01 0.01 0.01
0.06 0.06 0.08 0.11 0.12 0.11 0.09 0.07 0.06 0.06 0.05 0.05 0.04 0.03 0.02 0.01 0.00 0.00 0.00 0.00 0.00 0.00 0.01 0.01 0.01 0.01 0.01 0.02 0.02 0.03 0.04 0.05 0.05 0.05 0.05 0.04 0.04 0.04 0.03 0.02 0.02 0.01 0.01
0.04 0.04 0.04 0.06 0.12 0.14 0.11 0.09 0.07 0.06 0.05 0.04 0.05 0.04 0.03 0.02 0.01 0.01 0.00 0.00 0.00 0.00 0.01 0.01 0.01 0.02 0.02 0.02 0.02 0.02 0.03 0.04 0.06 0.06 0.05 0.04 0.04 0.04 0.04 0.03 0.02 0.02 0.02
0.03 0.03 0.03 0.04 0.06 0.14 0.16 0.12 0.10 0.07 0.06 0.05 0.04 0.05 0.04 0.03 0.02 0.01 0.01 0.01 0.00 0.00 0.01 0.01 0.01 0.02 0.02 0.03 0.02 0.02 0.02 0.02 0.04 0.06 0.06 0.05 0.04 0.05 0.04 0.04 0.04 0.03 0.03
0.03 0.03 0.03 0.03 0.05 0.07 0.14 0.18 0.15 0.12 0.09 0.07 0.07 0.05 0.03 0.02 0.02 0.02 0.01 0.01 0.01 0.01 0.01 0.01 0.01 0.02 0.02 0.02 0.02 0.02 0.02 0.02 0.03 0.05 0.06 0.05 0.04 0.04 0.04 0.04 0.04 0.04 0.04
0.03 0.04 0.04 0.05 0.05 0.06 0.08 0.13 0.18 0.17 0.14 0.09 0.08 0.07 0.05 0.03 0.03 0.04 0.03 0.02 0.02 0.01 0.02 0.02 0.02 0.02 0.02 0.02 0.02 0.02 0.02 0.02 0.03 0.04 0.05 0.05 0.04 0.04 0.03 0.04 0.05 0.04 0.04
0.03 0.04 0.04 0.04 0.06 0.07 0.08 0.11 0.15 0.17 0.16 0.13 0.09 0.08 0.07 0.06 0.05 0.05 0.04 0.03 0.02 0.02 0.02 0.02 0.02 0.02 0.03 0.03 0.02 0.03 0.02 0.02 0.03 0.03 0.04 0.04 0.05 0.04 0.03 0.04 0.06 0.05 0.06
0.05 0.04 0.04 0.04 0.05 0.07 0.09 0.10 0.12 0.15 0.17 0.16 0.14 0.11 0.10 0.10 0.09 0.08 0.06 0.03 0.02 0.02 0.03 0.03 0.03 0.03 0.03 0.04 0.04 0.03 0.02 0.02 0.03 0.03 0.03 0.03 0.03 0.04 0.04 0.06 0.07 0.05 0.06
0.05 0.05 0.05 0.05 0.05 0.07 0.08 0.11 0.12 0.14 0.16 0.17 0.16 0.15 0.15 0.14 0.12 0.11 0.08 0.07 0.05 0.03 0.03 0.04 0.04 0.05 0.05 0.04 0.04 0.05 0.03 0.03 0.03 0.03 0.03 0.03 0.02 0.03 0.05 0.07 0.07 0.06 0.07
0.05 0.05 0.06 0.06 0.06 0.07 0.08 0.09 0.11 0.12 0.13 0.15 0.16 0.15 0.14 0.12 0.12 0.12 0.11 0.10 0.09 0.08 0.06 0.06 0.06 0.05 0.04 0.04 0.04 0.03 0.02 0.03 0.03 0.04 0.03 0.03 0.03 0.04 0.06 0.09 0.10 0.08 0.08
0.04 0.05 0.05 0.06 0.06 0.06 0.08 0.09 0.09 0.10 0.12 0.13 0.14 0.15 0.14 0.12 0.11 0.11 0.12 0.11 0.10 0.10 0.09 0.07 0.07 0.06 0.05 0.03 0.03 0.02 0.02 0.02 0.04 0.04 0.04 0.05 0.06 0.07 0.08 0.10 0.11 0.10 0.07
0.03 0.03 0.03 0.04 0.05 0.06 0.07 0.08 0.09 0.11 0.12 0.12 0.11 0.11 0.11 0.11 0.11 0.10 0.10 0.11 0.10 0.09 0.09 0.07 0.05 0.04 0.04 0.04 0.04 0.04 0.04 0.05 0.06 0.05 0.06 0.08 0.09 0.10 0.10 0.12 0.13 0.11 0.07
0.03 0.04 0.03 0.03 0.03 0.04 0.06 0.08 0.09 0.10 0.10 0.10 0.09 0.09 0.08 0.09 0.09 0.10 0.09 0.10 0.10 0.09 0.08 0.07 0.05 0.04 0.04 0.05 0.05 0.07 0.09 0.09 0.09 0.08 0.08 0.09 0.11 0.11 0.11 0.12 0.14 0.12 0.07
0.03 0.04 0.04 0.03 0.03 0.04 0.05 0.06 0.07 0.08 0.08 0.08 0.08 0.08 0.08 0.08 0.08 0.09 0.09 0.09 0.09 0.09 0.08 0.07 0.06 0.05 0.05 0.04 0.04 0.06 0.08 0.09 0.10 0.09 0.09 0.10 0.10 0.09 0.09 0.10 0.11 0.10 0.06
0.04 0.05 0.05 0.04 0.04 0.04 0.05 0.05 0.05 0.05 0.06 0.06 0.06 0.06 0.06 0.07 0.07 0.07 0.08 0.08 0.08 0.09 0.08 0.09 0.08 0.06 0.05 0.04 0.05 0.07 0.07 0.08 0.08 0.08 0.09 0.09 0.08 0.07 0.07 0.06 0.07 0.08 0.06
0.04 0.05 0.05 0.05 0.04 0.04 0.05 0.04 0.05 0.05 0.05 0.05 0.05 0.04 0.04 0.05 0.06 0.06 0.07 0.08 0.08 0.07 0.07 0.07 0.07 0.06 0.05 0.06 0.08 0.09 0.08 0.07 0.07 0.07 0.07 0.07 0.06 0.05 0.05 0.05 0.05 0.06 0.05
0.05 0.05 0.06 0.06 0.05 0.05 0.06 0.05 0.05 0.04 0.04 0.05 0.05 0.04 0.04 0.04 0.05 0.05 0.05 0.06 0.06 0.06 0.06 0.06 0.06 0.07 0.07 0.08 0.09 0.09 0.07 0.07 0.08 0.07 0.06 0.05 0.04 0.05 0.05 0.04 0.04 0.04 0.04
0.06 0.06 0.06 0.07 0.06 0.07 0.07 0.06 0.06 0.04 0.03 0.04 0.04 0.03 0.03 0.03 0.03 0.03 0.04 0.04 0.04 0.04 0.05 0.05 0.05 0.06 0.08 0.09 0.10 0.08 0.07 0.07 0.08 0.07 0.04 0.04 0.04 0.04 0.04 0.04 0.04 0.04 0.04
0.07 0.08 0.09 0.08 0.07 0.07 0.07 0.07 0.06 0.04 0.03 0.02 0.03 0.03 0.02 0.02 0.02 0.02 0.03 0.04 0.03 0.03 0.03 0.03 0.03 0.04 0.05 0.07 0.07 0.06 0.06 0.05 0.06 0.05 0.04 0.04 0.04 0.04 0.03 0.03 0.03 0.03 0.04
0.09 0.09 0.10 0.08 0.07 0.06 0.08 0.08 0.07 0.04 0.03 0.02 0.03 0.03 0.03 0.02 0.02 0.03 0.04 0.04 0.03 0.02 0.02 0.02 0.03 0.03 0.04 0.04 0.04 0.04 0.04 0.04 0.05 0.05 0.03 0.03 0.03 0.03 0.03 0.03 0.03 0.03 0.03
0.08 0.09 0.09 0.08 0.07 0.06 0.08 0.07 0.07 0.04 0.03 0.03 0.03 0.03 0.03 0.03 0.03 0.03 0.04 0.04 0.03 0.03 0.03 0.03 0.03 0.03 0.03 0.03 0.03 0.02 0.03 0.03 0.04 0.03 0.02 0.02 0.02 0.02 0.03 0.03 0.02 0.02 0.02

GEFSMA_prec_meanprec_306.txt.gz
QPF
0.06 0.06 0.06 0.06 0.06 0.05 0.04 0.04 0.05 0.04 0.02 0.01 0.01 0.01 0.00 0.00 0.01 0.01 0.01 0.01 0.02 0.02 0.02 0.02 0.03 0.03 0.03 0.03 0.03 0.04 0.05 0.05 0.05 0.04 0.03 0.03 0.02 0.02 0.02 0.02 0.02 0.02 0.03
0.05 0.06 0.08 0.06 0.06 0.05 0.04 0.04 0.04 0.04 0.03 0.02 0.01 0.01 0.01 0.00 0.00 0.01 0.02 0.02 0.01 0.01 0.02 0.03 0.03 0.03 0.03 0.03 0.04 0.04 0.05 0.06 0.06 0.07 0.06 0.05 0.04 0.02 0.02 0.02 0.01 0.01 0.01
0.04 0.04 0.05 0.06 0.06 0.05 0.04 0.04 0.04 0.04 0.03 0.02 0.02 0.01 0.01 0.00 0.00 0.01 0.02 0.01 0.01 0.01 0.02 0.02 0.03 0.02 0.03 0.03 0.04 0.04 0.03 0.04 0.05 0.05 0.05 0.06 0.05 0.04 0.03 0.02 0.02 0.01 0.01
0.03 0.03 0.04 0.04 0.06 0.06 0.05 0.05 0.05 0.05 0.04 0.02 0.01 0.01 0.01 0.01 0.00 0.01 0.01 0.01 0.01 0.02 0.02 0.02 0.01 0.01 0.02 0.03 0.04 0.04 0.03 0.03 0.04 0.04 0.05 0.05 0.06 0.06 0.05 0.04 0.03 0.02 0.01
0.04 0.03 0.03 0.03 0.04 0.07 0.06 0.05 0.05 0.05 0.06 0.04 0.02 0.01 0.01 0.01 0.01 0.01 0.01 0.01 0.01 0.01 0.02 0.01 0.01 0.01 0.01 0.02 0.03 0.04 0.04 0.04 0.04 0.04 0.04 0.05 0.07 0.07 0.06 0.05 0.03 0.02 0.01
0.04 0.03 0.03 0.03 0.03 0.05 0.07 0.07 0.06 0.05 0.06 0.06 0.04 0.03 0.02 0.01 0.01 0.01 0.01 0.01 0.01 0.01 0.01 0.00 0.00 0.01 0.01 0.01 0.02 0.03 0.04 0.05 0.05 0.05 0.05 0.05 0.06 0.07 0.08 0.07 0.05 0.03 0.02
0.04 0.02 0.02 0.04 0.03 0.03 0.04 0.07 0.08 0.06 0.07 0.09 0.09 0.07 0.04 0.02 0.01 0.01 0.01 0.01 0.01 0.01 0.01 0.00 0.00 0.00 0.01 0.01 0.01 0.02 0.03 0.04 0.05 0.06 0.06 0.06 0.06 0.06 0.08 0.09 0.08 0.06 0.04
0.05 0.04 0.03 0.03 0.03 0.04 0.05 0.05 0.07 0.08 0.08 0.07 0.08 0.08 0.07 0.05 0.02 0.01 0.01 0.01 0.01 0.01 0.01 0.00 0.00 0.00 0.01 0.01 0.01 0.02 0.02 0.03 0.04 0.05 0.05 0.06 0.05 0.06 0.06 0.08 0.09 0.08 0.06
0.04 0.04 0.03 0.03 0.03 0.03 0.05 0.05 0.06 0.07 0.08 0.07 0.06 0.06 0.06 0.05 0.03 0.02 0.01 0.01 0.02 0.03 0.02 0.01 0.01 0.01 0.01 0.01 0.01 0.01 0.02 0.02 0.03 0.04 0.05 0.06 0.06 0.06 0.07 0.08 0.09 0.09 0.09
0.05 0.06 0.04 0.03 0.03 0.03 0.03 0.04 0.06 0.06 0.07 0.07 0.06 0.06 0.05 0.03 0.03 0.03 0.02 0.02 0.02 0.03 0.03 0.02 0.01 0.01 0.01 0.01 0.01 0.01 0.01 0.02 0.02 0.03 0.04 0.05 0.06 0.07 0.08 0.09 0.08 0.09 0.09
0.04 0.05 0.06 0.06 0.03 0.02 0.02 0.03 0.05 0.08 0.09 0.09 0.08 0.07 0.07 0.05 0.04 0.03 0.02 0.02 0.02 0.02 0.02 0.01 0.01 0.01 0.01 0.01 0.01 0.01 0.01 0.02 0.02 0.03 0.04 0.05 0.06 0.07 0.07 0.08 0.09 0.08 0.08
0.02 0.02 0.03 0.05 0.06 0.04 0.02 0.02 0.04 0.08 0.11 0.12 0.10 0.09 0.09 0.09 0.08 0.06 0.04 0.03 0.02 0.02 0.02 0.01 0.01 0.01 0.01 0.01 0.01 0.01 0.01 0.02 0.02 0.03 0.03 0.04 0.05 0.06 0.07 0.07 0.08 0.08 0.07
0.02 0.02 0.02 0.03 0.04 0.05 0.05 0.03 0.02 0.04 0.08 0.13 0.14 0.11 0.09 0.09 0.10 0.12 0.12 0.09 0.06 0.04 0.03 0.02 0.01 0.01 0.01 0.01 0.01 0.01 0.02 0.02 0.03 0.04 0.04 0.04 0.04 0.05 0.06 0.07 0.07 0.07 0.07
0.01 0.02 0.02 0.02 0.03 0.03 0.04 0.05 0.05 0.05 0.05 0.07 0.10 0.11 0.11 0.11 0.10 0.11 0.12 0.12 0.10 0.08 0.05 0.03 0.02 0.01 0.01 0.01 0.01 0.02 0.02 0.03 0.03 0.04 0.05 0.05 0.04 0.04 0.05 0.06 0.06 0.06 0.07
0.01 0.01 0.01 0.02 0.03 0.03 0.03 0.03 0.03 0.06 0.07 0.08 0.08 0.08 0.10 0.11 0.11 0.11 0.12 0.12 0.13 0.13 0.10 0.08 0.06 0.05 0.04 0.02 0.03 0.03 0.03 0.04 0.04 0.04 0.04 0.04 0.04 0.04 0.04 0.05 0.05 0.05 0.05
0.00 0.01 0.01 0.01 0.01 0.03 0.04 0.03 0.03 0.02 0.04 0.06 0.08 0.11 0.12 0.12 0.12 0.12 0.12 0.13 0.12 0.13 0.12 0.10 0.09 0.08 0.07 0.06 0.06 0.05 0.05 0.05 0.04 0.04 0.03 0.03 0.03 0.03 0.03 0.04 0.05 0.05 0.05
0.00 0.01 0.01 0.01 0.01 0.01 0.03 0.04 0.04 0.04 0.04 0.04 0.06 0.07 0.08 0.10 0.11 0.12 0.11 0.11 0.12 0.12 0.13 0.10 0.08 0.08 0.07 0.07 0.08 0.06 0.05 0.04 0.04 0.03 0.03 0.03 0.03 0.03 0.03 0.03 0.04 0.04 0.05
0.00 0.01 0.01 0.01 0.01 0.01 0.02 0.03 0.02 0.03 0.04 0.05 0.05 0.05 0.05 0.06 0.07 0.08 0.08 0.07 0.08 0.09 0.11 0.11 0.09 0.08 0.08 0.08 0.07 0.07 0.06 0.06 0.05 0.03 0.03 0.04 0.04 0.04 0.04 0.04 0.04 0.05 0.06
0.00 0.01 0.01 0.02 0.02 0.02 0.02 0.02 0.02 0.02 0.03 0.04 0.04 0.04 0.04 0.05 0.06 0.07 0.07 0.06 0.06 0.06 0.08 0.09 0.09 0.08 0.07 0.07 0.07 0.06 0.05 0.06 0.06 0.05 0.05 0.06 0.07 0.07 0.07 0.06 0.06 0.06 0.07
0.01 0.01 0.02 0.02 0.02 0.03 0.03 0.02 0.02 0.02 0.02 0.02 0.02 0.02 0.03 0.04 0.05 0.06 0.06 0.04 0.04 0.04 0.05 0.05 0.05 0.04 0.04 0.04 0.05 0.05 0.06 0.06 0.06 0.05 0.05 0.07 0.08 0.10 0.10 0.08 0.07 0.08 0.09
0.02 0.02 0.03 0.03 0.03 0.03 0.04 0.03 0.02 0.03 0.02 0.02 0.02 0.02 0.02 0.03 0.04 0.04 0.04 0.04 0.04 0.04 0.04 0.04 0.03 0.03 0.03 0.03 0.03 0.04 0.05 0.05 0.05 0.05 0.05 0.07 0.08 0.08 0.08 0.08 0.08 0.08 0.09
0.02 0.02 0.03 0.03 0.03 0.03 0.04 0.04 0.03 0.03 0.02 0.02 0.02 0.02 0.02 0.02 0.03 0.03 0.03 0.03 0.04 0.04 0.03 0.03 0.03 0.03 0.03 0.03 0.03 0.03 0.03 0.04 0.05 0.06 0.06 0.07 0.07 0.08 0.08 0.08 0.09 0.09 0.09
0.01 0.02 0.02 0.03 0.04 0.04 0.05 0.05 0.05 0.04 0.03 0.03 0.02 0.02 0.02 0.02 0.02 0.02 0.03 0.03 0.02 0.03 0.03 0.03 0.03 0.03 0.04 0.04 0.03 0.03 0.03 0.04 0.05 0.06 0.06 0.07 0.07 0.08 0.08 0.09 0.10 0.11 0.11
0.02 0.02 0.02 0.04 0.05 0.05 0.05 0.05 0.05 0.04 0.03 0.03 0.02 0.02 0.02 0.02 0.03 0.03 0.02 0.02 0.02 0.02 0.02 0.02 0.02 0.02 0.03 0.04 0.04 0.04 0.04 0.04 0.05 0.05 0.05 0.06 0.06 0.06 0.07 0.08 0.09 0.11 0.11
0.03 0.03 0.03 0.04 0.05 0.06 0.07 0.06 0.05 0.04 0.03 0.03 0.02 0.02 0.02 0.02 0.03 0.03 0.02 0.02 0.02 0.02 0.02 0.02 0.02 0.02 0.02 0.04 0.04 0.04 0.04 0.04 0.06 0.06 0.05 0.05 0.05 0.05 0.06 0.07 0.08 0.11 0.11
0.03 0.04 0.04 0.04 0.05 0.06 0.07 0.06 0.05 0.04 0.04 0.03 0.02 0.02 0.03 0.03 0.04 0.04 0.03 0.03 0.03 0.03 0.02 0.02 0.02 0.02 0.02 0.02 0.02 0.03 0.04 0.05 0.06 0.07 0.05 0.04 0.03 0.04 0.05 0.05 0.05 0.06 0.07

GEFSMA_prec_meanprec_312.txt.gz
QPF
0.03 0.03 0.03 0.03 0.04 0.04 0.04 0.04 0.05 0.06 0.05 0.06 0.05 0.03 0.02 0.01 0.01 0.01 0.01 0.00 0.01 0.02 0.03 0.05 0.04 0.04 0.03 0.02 0.02 0.02 0.02 0.03 0.03 0.03 0.04 0.03 0.03 0.03 0.03 0.02 0.02 0.02 0.02
0.03 0.04 0.04 0.04 0.04 0.04 0.04 0.04 0.04 0.04 0.05 0.05 0.06 0.05 0.04 0.02 0.01 0.01 0.01 0.02 0.02 0.01 0.02 0.04 0.05 0.04 0.03 0.02 0.02 0.02 0.02 0.02 0.02 0.02 0.03 0.03 0.04 0.04 0.04 0.04 0.03 0.02 0.02
0.04 0.03 0.03 0.02 0.03 0.05 0.06 0.04 0.05 0.06 0.05 0.05 0.05 0.06 0.05 0.03 0.02 0.02 0.01 0.01 0.01 0.01 0.03 0.06 0.05 0.03 0.02 0.02 0.02 0.02 0.02 0.02 0.02 0.01 0.01 0.01 0.02 0.04 0.05 0.05 0.04 0.04 0.03
0.03 0.04 0.03 0.02 0.02 0.04 0.06 0.06 0.05 0.06 0.06 0.05 0.05 0.05 0.05 0.04 0.02 0.02 0.01 0.00 0.00 0.01 0.04 0.05 0.03 0.02 0.01 0.01 0.01 0.02 0.01 0.01 0.02 0.02 0.02 0.02 0.02 0.03 0.04 0.04 0.05 0.05 0.05
0.04 0.04 0.04 0.04 0.03 0.03 0.04 0.06 0.06 0.06 0.06 0.06 0.06 0.05 0.05 0.04 0.03 0.02 0.01 0.01 0.01 0.01 0.02 0.03 0.02 0.01 0.01 0.01 0.01 0.02 0.01 0.01 0.02 0.02 0.02 0.02 0.02 0.02 0.02 0.03 0.04 0.05 0.06
0.04 0.05 0.04 0.04 0.05 0.04 0.04 0.05 0.05 0.06 0.06 0.07 0.07 0.06 0.05 0.05 0.04 0.03 0.02 0.02 0.01 0.01 0.01 0.01 0.01 0.00 0.00 0.01 0.01 0.02 0.02 0.02 0.02 0.02 0.02 0.02 0.02 0.02 0.02 0.03 0.03 0.04 0.05
0.05 0.05 0.03 0.03 0.03 0.03 0.03 0.04 0.05 0.06 0.05 0.07 0.09 0.08 0.09 0.08 0.06 0.05 0.04 0.03 0.02 0.03 0.02 0.01 0.00 0.00 0.00 0.00 0.01 0.01 0.01 0.02 0.02 0.02 0.02 0.03 0.03 0.03 0.02 0.03 0.03 0.04 0.05
0.05 0.06 0.05 0.03 0.03 0.02 0.02 0.03 0.05 0.06 0.06 0.05 0.07 0.07 0.08 0.08 0.06 0.04 0.03 0.02 0.02 0.03 0.02 0.02 0.01 0.00 0.00 0.00 0.00 0.00 0.01 0.01 0.02 0.02 0.02 0.03 0.03 0.03 0.03 0.03 0.03 0.04 0.04
0.03 0.05 0.06 0.05 0.04 0.04 0.03 0.01 0.03 0.05 0.06 0.06 0.05 0.05 0.04 0.04 0.04 0.03 0.02 0.01 0.01 0.02 0.02 0.02 0.01 0.01 0.00 0.00 0.00 0.00 0.01 0.01 0.01 0.02 0.02 0.03 0.03 0.04 0.04 0.04 0.04 0.04 0.05
0.02 0.03 0.04 0.04 0.04 0.04 0.05 0.04 0.03 0.03 0.06 0.07 0.07 0.04 0.03 0.03 0.04 0.04 0.02 0.01 0.01 0.01 0.01 0.01 0.02 0.02 0.02 0.01 0.00 0.00 0.01 0.01 0.01 0.02 0.02 0.03 0.03 0.04 0.05 0.05 0.04 0.04 0.04
0.01 0.01 0.02 0.03 0.04 0.04 0.03 0.04 0.04 0.04 0.06 0.07 0.08 0.07 0.04 0.02 0.03 0.03 0.03 0.02 0.02 0.01 0.01 0.02 0.02 0.02 0.01 0.02 0.01 0.01 0.01 0.01 0.01 0.01 0.02 0.02 0.03 0.04 0.04 0.04 0.04 0.04 0.04
0.01 0.01 0.02 0.02 0.04 0.06 0.06 0.04 0.04 0.04 0.06 0.09 0.11 0.10 0.08 0.05 0.03 0.04 0.03 0.02 0.02 0.02 0.01 0.01 0.01 0.01 0.01 0.01 0.01 0.02 0.02 0.02 0.02 0.01 0.01 0.01 0.02 0.03 0.04 0.05 0.04 0.04 0.04
0.01 0.01 0.01 0.02 0.02 0.04 0.06 0.07 0.06 0.05 0.04 0.06 0.12 0.14 0.13 0.11 0.08 0.06 0.07 0.06 0.06 0.05 0.04 0.03 0.03 0.02 0.02 0.02 0.02 0.02 0.02 0.02 0.02 0.02 0.02 0.02 0.02 0.02 0.03 0.04 0.04 0.03 0.03
0.02 0.01 0.02 0.02 0.02 0.02 0.04 0.06 0.07 0.06 0.05 0.05 0.07 0.10 0.12 0.15 0.15 0.12 0.11 0.10 0.09 0.07 0.05 0.05 0.04 0.04 0.04 0.03 0.03 0.02 0.02 0.02 0.02 0.02 0.02 0.03 0.03 0.03 0.04 0.03 0.03 0.02 0.02
0.02 0.01 0.01 0.02 0.02 0.02 0.02 0.03 0.05 0.05 0.05 0.05 0.06 0.07 0.08 0.09 0.11 0.09 0.08 0.08 0.08 0.06 0.04 0.03 0.03 0.04 0.04 0.03 0.03 0.03 0.03 0.03 0.03 0.02 0.02 0.03 0.02 0.03 0.04 0.04 0.02 0.02 0.02
0.03 0.02 0.01 0.01 0.01 0.01 0.02 0.02 0.03 0.04 0.04 0.04 0.05 0.06 0.06 0.06 0.06 0.05 0.05 0.06 0.07 0.07 0.06 0.04 0.03 0.03 0.03 0.03 0.04 0.03 0.03 0.04 0.04 0.03 0.03 0.03 0.02 0.02 0.03 0.03 0.02 0.03 0.03
0.04 0.04 0.02 0.01 0.01 0.01 0.01 0.02 0.03 0.03 0.04 0.04 0.05 0.05 0.05 0.05 0.05 0.06 0.06 0.06 0.07 0.08 0.09 0.06 0.05 0.05 0.04 0.03 0.03 0.03 0.03 0.03 0.04 0.04 0.03 0.03 0.03 0.03 0.04 0.04 0.02 0.02 0.03
0.04 0.04 0.04 0.02 0.01 0.00 0.01 0.02 0.03 0.03 0.03 0.04 0.05 0.05 0.04 0.04 0.04 0.04 0.05 0.06 0.06 0.07 0.07 0.06 0.05 0.05 0.05 0.04 0.03 0.04 0.04 0.04 0.05 0.05 0.04 0.03 0.03 0.04 0.04 0.04 0.02 0.03 0.03
0.03 0.03 0.03 0.03 0.01 0.01 0.01 0.01 0.02 0.03 0.03 0.03 0.04 0.04 0.04 0.04 0.04 0.04 0.04 0.04 0.04 0.04 0.04 0.04 0.04 0.04 0.04 0.04 0.04 0.04 0.04 0.04 0.04 0.04 0.05 0.05 0.05 0.05 0.05 0.04 0.03 0.04 0.04
0.03 0.03 0.03 0.03 0.02 0.02 0.02 0.02 0.03 0.03 0.04 0.03 0.03 0.03 0.03 0.04 0.04 0.03 0.03 0.03 0.03 0.02 0.03 0.03 0.03 0.03 0.02 0.03 0.03 0.03 0.04 0.04 0.04 0.03 0.03 0.03 0.04 0.05 0.06 0.07 0.06 0.06 0.06
0.03 0.03 0.04 0.05 0.04 0.03 0.03 0.04 0.04 0.04 0.03 0.03 0.03 0.03 0.02 0.02 0.03 0.03 0.02 0.02 0.03 0.03 0.03 0.03 0.03 0.02 0.02 0.02 0.02 0.03 0.03 0.04 0.03 0.03 0.03 0.03 0.04 0.05 0.06 0.07 0.06 0.06 0.07
0.02 0.02 0.04 0.05 0.04 0.03 0.03 0.03 0.03 0.03 0.03 0.03 0.03 0.02 0.02 0.02 0.02 0.02 0.02 0.03 0.03 0.03 0.03 0.03 0.03 0.02 0.02 0.02 0.02 0.02 0.03 0.03 0.03 0.03 0.03 0.04 0.06 0.08 0.07 0.06 0.06 0.06 0.07
0.01 0.01 0.02 0.03 0.04 0.03 0.03 0.04 0.05 0.04 0.04 0.03 0.03 0.02 0.02 0.02 0.02 0.01 0.01 0.02 0.02 0.02 0.02 0.02 0.02 0.02 0.02 0.02 0.02 0.02 0.03 0.03 0.04 0.04 0.05 0.07 0.08 0.09 0.07 0.07 0.06 0.06 0.08
0.01 0.01 0.01 0.02 0.03 0.04 0.04 0.04 0.04 0.04 0.04 0.04 0.04 0.03 0.03 0.02 0.02 0.01 0.01 0.01 0.01 0.01 0.02 0.02 0.02 0.02 0.02 0.02 0.02 0.03 0.03 0.04 0.06 0.06 0.06 0.07 0.07 0.08 0.06 0.06 0.06 0.07 0.09
0.02 0.02 0.01 0.02 0.03 0.04 0.05 0.04 0.04 0.04 0.03 0.04 0.03 0.02 0.02 0.02 0.02 0.02 0.02 0.02 0.02 0.02 0.02 0.03 0.03 0.03 0.03 0.04 0.03 0.04 0.04 0.05 0.06 0.05 0.04 0.05 0.06 0.05 0.05 0.05 0.07 0.08 0.08
0.01 0.01 0.02 0.02 0.02 0.04 0.06 0.04 0.03 0.03 0.03 0.02 0.02 0.02 0.03 0.03 0.03 0.02 0.02 0.02 0.02 0.02 0.02 0.02 0.03 0.03 0.03 0.04 0.05 0.04 0.03 0.03 0.04 0.04 0.04 0.04 0.05 0.04 0.05 0.06 0.07 0.07 0.06

GEFSMA_prec_meanprec_318.txt.gz
QPF
0.02 0.03 0.02 0.02 0.02 0.03 0.03 0.04 0.03 0.03 0.03 0.02 0.02 0.03 0.03 0.02 0.01 0.01 0.01 0.00 0.00 0.01 0.01 0.06 0.09 0.07 0.04 0.02 0.02 0.02 0.02 0.02 0.01 0.01 0.01 0.01 0.02 0.02 0.02 0.02 0.03 0.03 0.03
0.02 0.03 0.03 0.02 0.02 0.02 0.02 0.04 0.04 0.04 0.04 0.04 0.02 0.02 0.02 0.02 0.01 0.01 0.00 0.00 0.00 0.01 0.01 0.03 0.05 0.06 0.04 0.03 0.03 0.02 0.02 0.02 0.02 0.02 0.02 0.02 0.02 0.02 0.01 0.01 0.01 0.02 0.02
0.02 0.03 0.03 0.02 0.02 0.02 0.02 0.03 0.04 0.05 0.05 0.05 0.03 0.02 0.02 0.02 0.02 0.02 0.01 0.01 0.00 0.00 0.01 0.02 0.02 0.03 0.03 0.04 0.03 0.03 0.03 0.03 0.02 0.02 0.02 0.02 0.01 0.01 0.01 0.01 0.01 0.02 0.02
0.03 0.03 0.03 0.03 0.03 0.02 0.02 0.02 0.04 0.05 0.05 0.06 0.04 0.03 0.03 0.02 0.02 0.03 0.02 0.02 0.01 0.00 0.01 0.02 0.02 0.02 0.02 0.03 0.03 0.02 0.02 0.02 0.02 0.02 0.02 0.02 0.02 0.02 0.02 0.01 0.02 0.02 0.02
0.04 0.03 0.03 0.03 0.04 0.03 0.02 0.02 0.03 0.05 0.05 0.05 0.04 0.03 0.03 0.03 0.03 0.03 0.02 0.01 0.01 0.01 0.01 0.01 0.02 0.01 0.01 0.01 0.02 0.02 0.01 0.01 0.01 0.02 0.02 0.02 0.02 0.02 0.02 0.01 0.01 0.02 0.02
0.04 0.04 0.03 0.03 0.03 0.04 0.04 0.04 0.03 0.05 0.05 0.04 0.05 0.05 0.04 0.04 0.04 0.04 0.04 0.03 0.02 0.01 0.01 0.01 0.01 0.01 0.00 0.01 0.02 0.02 0.02 0.01 0.01 0.02 0.02 0.02 0.02 0.02 0.02 0.02 0.02 0.01 0.02
0.03 0.03 0.03 0.02 0.02 0.03 0.04 0.05 0.06 0.06 0.06 0.05 0.06 0.06 0.06 0.05 0.04 0.04 0.04 0.03 0.03 0.02 0.01 0.01 0.01 0.00 0.00 0.00 0.01 0.02 0.03 0.03 0.03 0.03 0.02 0.02 0.02 0.03 0.03 0.03 0.02 0.03 0.03
0.02 0.02 0.02 0.02 0.02 0.03 0.03 0.03 0.06 0.06 0.06 0.05 0.07 0.10 0.09 0.08 0.06 0.05 0.04 0.03 0.02 0.02 0.02 0.01 0.02 0.01 0.01 0.00 0.00 0.01 0.02 0.03 0.04 0.03 0.02 0.02 0.02 0.03 0.03 0.04 0.04 0.04 0.05
0.01 0.02 0.02 0.02 0.02 0.02 0.02 0.03 0.05 0.06 0.06 0.05 0.05 0.09 0.11 0.09 0.06 0.06 0.05 0.04 0.03 0.02 0.02 0.02 0.01 0.01 0.01 0.01 0.01 0.01 0.01 0.03 0.04 0.03 0.03 0.02 0.02 0.03 0.04 0.04 0.04 0.04 0.04
0.01 0.01 0.02 0.02 0.02 0.01 0.01 0.02 0.04 0.06 0.06 0.05 0.04 0.04 0.06 0.08 0.09 0.08 0.07 0.05 0.04 0.03 0.03 0.02 0.02 0.01 0.01 0.01 0.01 0.01 0.01 0.03 0.04 0.04 0.03 0.03 0.02 0.03 0.04 0.04 0.04 0.04 0.04
0.02 0.01 0.02 0.02 0.02 0.02 0.02 0.01 0.02 0.05 0.06 0.05 0.05 0.06 0.06 0.05 0.05 0.07 0.08 0.08 0.07 0.05 0.04 0.03 0.03 0.02 0.02 0.01 0.01 0.02 0.02 0.03 0.03 0.03 0.03 0.03 0.03 0.04 0.04 0.04 0.04 0.04 0.04
0.01 0.01 0.01 0.01 0.01 0.01 0.02 0.03 0.02 0.03 0.05 0.05 0.04 0.04 0.07 0.11 0.09 0.06 0.04 0.04 0.06 0.06 0.05 0.04 0.03 0.03 0.02 0.02 0.02 0.02 0.02 0.02 0.03 0.03 0.03 0.03 0.03 0.04 0.03 0.03 0.03 0.04 0.05
0.01 0.01 0.01 0.01 0.01 0.01 0.01 0.02 0.04 0.04 0.04 0.05 0.04 0.03 0.03 0.06 0.10 0.11 0.10 0.08 0.07 0.06 0.05 0.04 0.03 0.03 0.02 0.03 0.03 0.03 0.02 0.02 0.02 0.03 0.03 0.03 0.03 0.03 0.03 0.03 0.04 0.05 0.07
0.01 0.01 0.01 0.01 0.01 0.01 0.01 0.01 0.02 0.04 0.05 0.05 0.04 0.03 0.02 0.03 0.05 0.08 0.12 0.13 0.12 0.10 0.08 0.06 0.04 0.04 0.03 0.03 0.04 0.04 0.02 0.03 0.03 0.03 0.02 0.02 0.02 0.02 0.02 0.04 0.04 0.05 0.06
0.01 0.01 0.01 0.01 0.01 0.01 0.01 0.01 0.01 0.02 0.03 0.05 0.05 0.04 0.03 0.03 0.04 0.05 0.07 0.08 0.09 0.10 0.08 0.07 0.05 0.04 0.04 0.03 0.03 0.03 0.02 0.02 0.03 0.03 0.03 0.02 0.02 0.02 0.02 0.03 0.03 0.03 0.03
0.01 0.01 0.01 0.01 0.01 0.01 0.01 0.01 0.01 0.01 0.02 0.03 0.04 0.05 0.04 0.03 0.03 0.03 0.04 0.05 0.05 0.06 0.06 0.04 0.03 0.02 0.02 0.02 0.03 0.03 0.02 0.03 0.03 0.03 0.03 0.03 0.03 0.03 0.02 0.03 0.03 0.02 0.02
0.01 0.01 0.01 0.02 0.01 0.01 0.01 0.01 0.01 0.01 0.01 0.02 0.03 0.04 0.05 0.04 0.03 0.04 0.04 0.04 0.05 0.05 0.05 0.03 0.02 0.02 0.02 0.02 0.02 0.02 0.02 0.03 0.03 0.03 0.02 0.02 0.03 0.02 0.02 0.02 0.03 0.03 0.02
0.02 0.02 0.02 0.02 0.03 0.02 0.02 0.01 0.01 0.01 0.02 0.02 0.02 0.02 0.03 0.04 0.04 0.05 0.05 0.05 0.06 0.06 0.07 0.05 0.03 0.02 0.02 0.02 0.02 0.02 0.02 0.02 0.03 0.03 0.02 0.02 0.02 0.02 0.03 0.03 0.02 0.02 0.02
0.02 0.02 0.02 0.03 0.03 0.02 0.02 0.02 0.02 0.02 0.02 0.01 0.01 0.02 0.02 0.02 0.02 0.03 0.04 0.05 0.05 0.05 0.05 0.05 0.04 0.02 0.01 0.01 0.02 0.02 0.02 0.02 0.01 0.02 0.02 0.01 0.01 0.02 0.02 0.02 0.02 0.01 0.02
0.02 0.02 0.02 0.02 0.03 0.02 0.02 0.02 0.02 0.02 0.01 0.01 0.01 0.01 0.01 0.02 0.02 0.02 0.02 0.03 0.03 0.03 0.03 0.03 0.02 0.01 0.01 0.01 0.01 0.01 0.02 0.02 0.01 0.01 0.01 0.01 0.01 0.02 0.02 0.01 0.01 0.02 0.02
0.01 0.01 0.01 0.02 0.02 0.02 0.02 0.01 0.01 0.02 0.02 0.01 0.01 0.02 0.02 0.03 0.04 0.04 0.04 0.03 0.02 0.02 0.02 0.02 0.02 0.01 0.01 0.01 0.01 0.01 0.02 0.02 0.02 0.01 0.01 0.01 0.01 0.01 0.01 0.01 0.02 0.02 0.02
0.01 0.01 0.01 0.01 0.01 0.01 0.01 0.01 0.02 0.02 0.02 0.02 0.02 0.03 0.02 0.03 0.03 0.04 0.04 0.03 0.02 0.01 0.01 0.02 0.02 0.01 0.01 0.01 0.02 0.02 0.02 0.02 0.02 0.01 0.01 0.01 0.01 0.01 0.01 0.01 0.02 0.02 0.03
0.01 0.01 0.00 0.00 0.01 0.01 0.01 0.02 0.03 0.03 0.03 0.02 0.02 0.02 0.02 0.02 0.03 0.02 0.02 0.02 0.02 0.02 0.02 0.02 0.02 0.02 0.02 0.02 0.02 0.02 0.02 0.03 0.03 0.02 0.03 0.03 0.03 0.04 0.04 0.03 0.03 0.02 0.04
0.01 0.01 0.01 0.00 0.00 0.01 0.01 0.02 0.03 0.03 0.03 0.02 0.02 0.02 0.02 0.02 0.02 0.02 0.02 0.01 0.01 0.01 0.01 0.02 0.02 0.02 0.02 0.02 0.02 0.02 0.02 0.03 0.04 0.04 0.04 0.05 0.06 0.08 0.07 0.05 0.06 0.06 0.06
0.01 0.01 0.01 0.00 0.01 0.01 0.02 0.02 0.03 0.02 0.03 0.03 0.03 0.03 0.03 0.02 0.02 0.02 0.02 0.02 0.01 0.01 0.01 0.01 0.02 0.02 0.03 0.03 0.02 0.02 0.02 0.03 0.04 0.03 0.04 0.05 0.06 0.05 0.06 0.08 0.09 0.08 0.06
0.01 0.01 0.01 0.01 0.01 0.01 0.02 0.02 0.02 0.02 0.02 0.02 0.02 0.02 0.02 0.02 0.02 0.03 0.02 0.02 0.02 0.01 0.01 0.01 0.01 0.02 0.02 0.02 0.03 0.03 0.03 0.03 0.03 0.03 0.03 0.04 0.04 0.04 0.06 0.09 0.09 0.06 0.05